| time (UTC) | temp F | wind direction | speed MPH | gust MPH | rain 1hr in | rain 24hr in | rain mn in | humidity % | barometer mb |
| 20260509011702 | 59 | 212 | 3.0 | 11.0 | 0.00 | 0.00 | 0.00 | 58 | 1013.9 |
| 20260509011603 | 59 | 186 | 3.0 | 11.0 | 0.00 | 0.00 | 0.00 | 58 | 1013.8 |
| 20260509011500 | 59 | 194 | 3.0 | 11.0 | 0.00 | 0.00 | 0.00 | 58 | 1013.9 |
| 20260509011402 | 59 | 219 | 3.0 | 11.0 | 0.00 | 0.00 | 0.00 | 58 | 1013.9 |
| 20260509011331 | 59 | 188 | 3.0 | 11.0 | 0.00 | 0.00 | 0.00 | 58 | 1013.9 |
| 20260509011320 | 59 | 200 | 3.0 | 11.0 | 0.00 | 0.00 | 0.00 | 58 | 1013.9 |
| 20260509011101 | 59 | 199 | 3.0 | 11.0 | 0.00 | 0.00 | 0.00 | 58 | 1013.9 |
| 20260509010957 | 59 | 184 | 3.0 | 11.0 | 0.00 | 0.00 | 0.00 | 58 | 1013.9 |
| 20260509010857 | 59 | 280 | 3.0 | 9.0 | 0.00 | 0.00 | 0.00 | 58 | 1013.9 |
| 20260509010756 | 59 | 198 | 3.0 | 8.0 | 0.00 | 0.00 | 0.00 | 58 | 1013.9 |
| 20260509010658 | 59 | 209 | 3.0 | 8.0 | 0.00 | 0.00 | 0.00 | 58 | 1013.9 |
| 20260509010557 | 59 | 215 | 3.0 | 8.0 | 0.00 | 0.00 | 0.00 | 57 | 1013.9 |
| 20260509010444 | 59 | 178 | 3.0 | 7.0 | 0.00 | 0.00 | 0.00 | 58 | 1013.8 |
| 20260509010424 | 59 | 230 | 3.0 | 7.0 | 0.00 | 0.00 | 0.00 | 58 | 1013.8 |
| 20260509010409 | 59 | 177 | 3.0 | 7.0 | 0.00 | 0.00 | 0.00 | 58 | 1013.9 |
| 20260509010144 | 59 | 198 | 3.0 | 7.0 | 0.00 | 0.00 | 0.00 | 58 | 1013.8 |
| 20260509010046 | 59 | 252 | 3.0 | 7.0 | 0.00 | 0.00 | 0.00 | 58 | 1013.8 |
| 20260509005940 | 59 | 200 | 2.0 | 7.0 | 0.00 | 0.00 | 0.00 | 58 | 1013.7 |
| 20260509005838 | 59 | 222 | 2.0 | 7.0 | 0.00 | 0.00 | 0.00 | 58 | 1013.7 |
| 20260509005740 | 59 | 211 | 3.0 | 6.0 | 0.00 | 0.00 | 0.00 | 57 | 1013.8 |
| 20260509005638 | 59 | 221 | 3.0 | 10.0 | 0.00 | 0.00 | 0.00 | 58 | 1013.8 |
| 20260509005609 | 59 | 202 | 3.0 | 10.0 | 0.00 | 0.00 | 0.00 | 58 | 1013.7 |
| 20260509005557 | 59 | 193 | 3.0 | 10.0 | 0.00 | 0.00 | 0.00 | 59 | 1013.8 |
| 20260509005331 | 60 | 243 | 3.0 | 10.0 | 0.00 | 0.00 | 0.00 | 58 | 1013.7 |
| 20260509005231 | 60 | 236 | 3.0 | 10.0 | 0.00 | 0.00 | 0.00 | 58 | 1013.8 |
| 20260509005130 | 60 | 198 | 3.0 | 10.0 | 0.00 | 0.00 | 0.00 | 58 | 1013.8 |
| 20260509005030 | 60 | 214 | 3.0 | 10.0 | 0.00 | 0.00 | 0.00 | 58 | 1013.8 |
| 20260509004931 | 60 | 215 | 3.0 | 10.0 | 0.00 | 0.00 | 0.00 | 57 | 1013.8 |
| 20260509004829 | 60 | 200 | 3.0 | 10.0 | 0.00 | 0.00 | 0.00 | 58 | 1013.7 |
| 20260509004729 | 60 | 250 | 3.0 | 10.0 | 0.00 | 0.00 | 0.00 | 57 | 1013.9 |
| 20260509004659 | 60 | 196 | 2.0 | 9.0 | 0.00 | 0.00 | 0.00 | 57 | 1013.9 |
| 20260509004650 | 60 | 220 | 3.0 | 9.0 | 0.00 | 0.00 | 0.00 | 57 | 1013.8 |
| 20260509004429 | 60 | 249 | 2.0 | 7.0 | 0.00 | 0.00 | 0.00 | 57 | 1013.8 |
| 20260509004328 | 60 | 254 | 2.0 | 7.0 | 0.00 | 0.00 | 0.00 | 58 | 1013.8 |
| 20260509004228 | 60 | 186 | 2.0 | 7.0 | 0.00 | 0.00 | 0.00 | 57 | 1013.9 |
| 20260509004128 | 60 | 194 | 2.0 | 7.0 | 0.00 | 0.00 | 0.00 | 57 | 1013.9 |
| 20260509004029 | 60 | 184 | 2.0 | 7.0 | 0.00 | 0.00 | 0.00 | 58 | 1013.9 |
| 20260509003928 | 60 | 230 | 2.0 | 7.0 | 0.00 | 0.00 | 0.00 | 58 | 1013.9 |
| 20260509003828 | 60 | 106 | 2.0 | 8.0 | 0.00 | 0.00 | 0.00 | 58 | 1013.9 |
| 20260509003740 | 60 | 200 | 3.0 | 8.0 | 0.00 | 0.00 | 0.00 | 59 | 1013.9 |
| 20260509003729 | 60 | 207 | 2.0 | 8.0 | 0.00 | 0.00 | 0.00 | 60 | 1013.9 |
| 20260509003724 | 60 | 175 | 3.0 | 8.0 | 0.00 | 0.00 | 0.00 | 57 | 1013.8 |
| 20260509003706 | 60 | 200 | 2.0 | 8.0 | 0.00 | 0.00 | 0.00 | 59 | 1013.9 |
| 20260509003329 | 60 | 198 | 2.0 | 8.0 | 0.00 | 0.00 | 0.00 | 57 | 1013.9 |
| 20260509003305 | 60 | 55 | 2.0 | 11.0 | 0.00 | 0.00 | 0.00 | 57 | 1014.0 |
| 20260509003253 | 60 | 223 | 2.0 | 8.0 | 0.00 | 0.00 | 0.00 | 59 | 1013.9 |
| 20260509003029 | 60 | 53 | 2.0 | 11.0 | 0.00 | 0.00 | 0.00 | 57 | 1013.9 |
| 20260509002930 | 60 | 53 | 3.0 | 11.0 | 0.00 | 0.00 | 0.00 | 57 | 1013.9 |
| 20260509002903 | 60 | 182 | 2.0 | 11.0 | 0.00 | 0.00 | 0.00 | 57 | 1013.9 |
| 20260509002850 | 60 | 190 | 2.0 | 11.0 | 0.00 | 0.00 | 0.00 | 57 | 1014.0 |
| 20260509002625 | 60 | 193 | 2.0 | 11.0 | 0.00 | 0.00 | 0.00 | 56 | 1013.9 |
| 20260509002526 | 60 | 207 | 2.0 | 11.0 | 0.00 | 0.00 | 0.00 | 59 | 1013.9 |
| 20260509002427 | 60 | 225 | 2.0 | 11.0 | 0.00 | 0.00 | 0.00 | 57 | 1013.9 |
| 20260509002324 | 60 | 180 | 2.0 | 11.0 | 0.00 | 0.00 | 0.00 | 58 | 1013.9 |
| 20260509002225 | 60 | 250 | 2.0 | 11.0 | 0.00 | 0.00 | 0.00 | 59 | 1013.8 |
| 20260509002125 | 60 | 190 | 2.0 | 7.0 | 0.00 | 0.00 | 0.00 | 59 | 1013.9 |
| 20260509002025 | 61 | 186 | 2.0 | 7.0 | 0.00 | 0.00 | 0.00 | 59 | 1013.9 |
| 20260509001927 | 61 | 178 | 2.0 | 8.0 | 0.00 | 0.00 | 0.00 | 59 | 1013.9 |
| 20260509001825 | 61 | 150 | 2.0 | 8.0 | 0.00 | 0.00 | 0.00 | 59 | 1013.9 |
| 20260509001725 | 61 | 234 | 2.0 | 10.0 | 0.00 | 0.00 | 0.00 | 59 | 1014.0 |
| 20260509001626 | 61 | 234 | 2.0 | 10.0 | 0.00 | 0.00 | 0.00 | 59 | 1014.0 |
| 20260509001525 | 61 | 235 | 2.0 | 10.0 | 0.00 | 0.00 | 0.00 | 58 | 1013.9 |
| 20260509001458 | 61 | 232 | 2.0 | 12.0 | 0.00 | 0.00 | 0.00 | 57 | 1013.9 |
| 20260509001446 | 61 | 232 | 2.0 | 10.0 | 0.00 | 0.00 | 0.00 | 59 | 1013.9 |
| 20260509001224 | 61 | 234 | 2.0 | 12.0 | 0.00 | 0.00 | 0.00 | 57 | 1013.9 |
| 20260509001124 | 61 | 196 | 2.0 | 12.0 | 0.00 | 0.00 | 0.00 | 58 | 1013.9 |
| 20260509001102 | 61 | 171 | 2.0 | 12.0 | 0.00 | 0.00 | 0.00 | 58 | 1013.9 |
| 20260509001048 | 61 | 231 | 2.0 | 12.0 | 0.00 | 0.00 | 0.00 | 58 | 1013.9 |
| 20260509000856 | 61 | 275 | 2.0 | 12.0 | 0.00 | 0.00 | 0.00 | 57 | 1014.0 |
| 20260509000846 | 61 | 88 | 2.0 | 12.0 | 0.00 | 0.00 | 0.00 | 57 | 1013.9 |
| 20260509000625 | 62 | 278 | 3.0 | 12.0 | 0.00 | 0.00 | 0.00 | 57 | 1014.0 |
| 20260509000524 | 62 | 235 | 3.0 | 12.0 | 0.00 | 0.00 | 0.00 | 58 | 1013.9 |
| 20260509000425 | 62 | 117 | 3.0 | 12.0 | 0.00 | 0.00 | 0.00 | 58 | 1014.0 |
| 20260509000326 | 62 | 124 | 3.0 | 10.0 | 0.00 | 0.00 | 0.00 | 57 | 1013.9 |
| 20260509000226 | 62 | 160 | 3.0 | 10.0 | 0.00 | 0.00 | 0.00 | 57 | 1013.9 |
| 20260509000124 | 62 | 205 | 3.0 | 10.0 | 0.00 | 0.00 | 0.00 | 58 | 1014.0 |
| 20260509000024 | 62 | 161 | 3.0 | 10.0 | 0.00 | 0.00 | 0.00 | 56 | 1013.9 |
| 20260508235924 | 62 | 207 | 3.0 | 10.0 | 0.00 | 0.00 | 0.00 | 56 | 1014.0 |
| 20260508235827 | 62 | 207 | 3.0 | 10.0 | 0.00 | 0.00 | 0.00 | 57 | 1014.0 |
| 20260508235804 | 62 | 214 | 3.0 | 9.0 | 0.00 | 0.00 | 0.00 | 56 | 1014.1 |
| 20260508235753 | 62 | 191 | 3.0 | 9.0 | 0.00 | 0.00 | 0.00 | 56 | 1014.0 |
| 20260508235521 | 62 | 190 | 3.0 | 10.0 | 0.00 | 0.00 | 0.00 | 55 | 1014.1 |
| 20260508235420 | 62 | 218 | 3.0 | 10.0 | 0.00 | 0.00 | 0.00 | 56 | 1014.1 |
| 20260508235320 | 62 | 163 | 3.0 | 10.0 | 0.00 | 0.00 | 0.00 | 56 | 1014.1 |
| 20260508235253 | 62 | 185 | 3.0 | 11.0 | 0.00 | 0.00 | 0.00 | 56 | 1014.1 |
| 20260508235243 | 62 | 141 | 3.0 | 11.0 | 0.00 | 0.00 | 0.00 | 55 | 1014.1 |
| 20260508235021 | 62 | 225 | 3.0 | 11.0 | 0.00 | 0.00 | 0.00 | 56 | 1014.1 |
| 20260508234920 | 62 | 149 | 3.0 | 11.0 | 0.00 | 0.00 | 0.00 | 56 | 1014.2 |
| 20260508234821 | 62 | 169 | 3.0 | 11.0 | 0.00 | 0.00 | 0.00 | 56 | 1014.1 |
| 20260508234722 | 62 | 185 | 3.0 | 11.0 | 0.00 | 0.00 | 0.00 | 55 | 1014.1 |
| 20260508234620 | 62 | 185 | 3.0 | 11.0 | 0.00 | 0.00 | 0.00 | 55 | 1014.1 |
| 20260508234520 | 62 | 267 | 3.0 | 11.0 | 0.00 | 0.00 | 0.00 | 55 | 1014.2 |
| 20260508234457 | 62 | 161 | 3.0 | 11.0 | 0.00 | 0.00 | 0.00 | 56 | 1014.2 |
| 20260508234445 | 62 | 268 | 3.0 | 11.0 | 0.00 | 0.00 | 0.00 | 56 | 1014.2 |
| 20260508234317 | 62 | 130 | 2.0 | 7.0 | 0.00 | 0.00 | 0.00 | 53 | 1014.2 |
| 20260508234313 | 62 | 196 | 2.0 | 7.0 | 0.00 | 0.00 | 0.00 | 54 | 1014.2 |
| 20260508234252 | 62 | 183 | 3.0 | 8.0 | 0.00 | 0.00 | 0.00 | 53 | 1014.2 |
| 20260508234123 | 62 | 219 | 3.0 | 7.0 | 0.00 | 0.00 | 0.00 | 53 | 1014.2 |
| 20260508234100 | 62 | 267 | 2.0 | 7.0 | 0.00 | 0.00 | 0.00 | 53 | 1014.2 |
| 20260508233719 | 62 | 155 | 2.0 | 7.0 | 0.00 | 0.00 | 0.00 | 54 | 1014.2 |
| 20260508233614 | 62 | 155 | 3.0 | 9.0 | 0.00 | 0.00 | 0.00 | 52 | 1014.4 |
| 20260508233513 | 63 | 216 | 2.0 | 9.0 | 0.00 | 0.00 | 0.00 | 53 | 1014.3 |
| 20260508233411 | 63 | 192 | 2.0 | 9.0 | 0.00 | 0.00 | 0.00 | 53 | 1014.3 |
| 20260508233342 | 63 | 210 | 2.0 | 9.0 | 0.00 | 0.00 | 0.00 | 52 | 1014.2 |
| 20260508233331 | 63 | 212 | 2.0 | 9.0 | 0.00 | 0.00 | 0.00 | 52 | 1014.3 |
| 20260508233106 | 63 | 210 | 2.0 | 9.0 | 0.00 | 0.00 | 0.00 | 53 | 1014.2 |
| 20260508233006 | 63 | 176 | 2.0 | 9.0 | 0.00 | 0.00 | 0.00 | 53 | 1014.3 |
| 20260508232904 | 63 | 131 | 2.0 | 9.0 | 0.00 | 0.00 | 0.00 | 53 | 1014.3 |
| 20260508232847 | 63 | 198 | 2.0 | 10.0 | 0.00 | 0.00 | 0.00 | 52 | 1014.3 |
| 20260508232843 | 63 | 172 | 2.0 | 10.0 | 0.00 | 0.00 | 0.00 | 53 | 1014.3 |
| 20260508232838 | 63 | 161 | 3.0 | 10.0 | 0.00 | 0.00 | 0.00 | 53 | 1014.3 |
| 20260508232827 | 63 | 218 | 3.0 | 10.0 | 0.00 | 0.00 | 0.00 | 52 | 1014.3 |
| 20260508232403 | 63 | 165 | 3.0 | 10.0 | 0.00 | 0.00 | 0.00 | 54 | 1014.3 |
| 20260508232306 | 63 | 211 | 3.0 | 10.0 | 0.00 | 0.00 | 0.00 | 52 | 1014.3 |
| 20260508232202 | 64 | 184 | 3.0 | 10.0 | 0.00 | 0.00 | 0.00 | 52 | 1014.3 |
| 20260508232132 | 64 | 206 | 3.0 | 10.0 | 0.00 | 0.00 | 0.00 | 51 | 1014.4 |
| 20260508232122 | 64 | 268 | 3.0 | 10.0 | 0.00 | 0.00 | 0.00 | 51 | 1014.4 |
| 20260508231858 | 64 | 214 | 3.0 | 10.0 | 0.00 | 0.00 | 0.00 | 51 | 1014.4 |
| 20260508231758 | 64 | 217 | 3.0 | 10.0 | 0.00 | 0.00 | 0.00 | 51 | 1014.4 |
| 20260508231729 | 64 | 178 | 3.0 | 10.0 | 0.00 | 0.00 | 0.00 | 51 | 1014.4 |
| 20260508231719 | 64 | 209 | 3.0 | 10.0 | 0.00 | 0.00 | 0.00 | 52 | 1014.3 |
| 20260508231459 | 64 | 235 | 2.0 | 10.0 | 0.00 | 0.00 | 0.00 | 50 | 1014.4 |
| 20260508231354 | 64 | 142 | 2.0 | 10.0 | 0.00 | 0.00 | 0.00 | 50 | 1014.4 |
| 20260508231326 | 64 | 221 | 3.0 | 10.0 | 0.00 | 0.00 | 0.00 | 50 | 1014.4 |
| 20260508231317 | 64 | 132 | 3.0 | 10.0 | 0.00 | 0.00 | 0.00 | 50 | 1014.4 |
| 20260508231056 | 64 | 210 | 2.0 | 8.0 | 0.00 | 0.00 | 0.00 | 51 | 1014.3 |
| 20260508230953 | 64 | 182 | 2.0 | 9.0 | 0.00 | 0.00 | 0.00 | 53 | 1014.3 |
| 20260508230848 | 65 | 194 | 2.0 | 9.0 | 0.00 | 0.00 | 0.00 | 52 | 1014.3 |
| 20260508230746 | 65 | 213 | 2.0 | 9.0 | 0.00 | 0.00 | 0.00 | 52 | 1014.4 |
| 20260508230620 | 65 | 165 | 3.0 | 9.0 | 0.00 | 0.00 | 0.00 | 51 | 1014.4 |
| 20260508230607 | 65 | 165 | 2.0 | 9.0 | 0.00 | 0.00 | 0.00 | 50 | 1014.4 |
| 20260508230359 | 65 | 238 | 3.0 | 9.0 | 0.00 | 0.00 | 0.00 | 50 | 1014.3 |
| 20260508230242 | 65 | 249 | 3.0 | 9.0 | 0.00 | 0.00 | 0.00 | 50 | 1014.4 |
| 20260508230142 | 65 | 205 | 3.0 | 9.0 | 0.00 | 0.00 | 0.00 | 50 | 1014.4 |
| 20260508230043 | 65 | 234 | 3.0 | 9.0 | 0.00 | 0.00 | 0.00 | 49 | 1014.4 |
| 20260508230002 | 65 | 208 | 3.0 | 9.0 | 0.00 | 0.00 | 0.00 | 51 | 1014.4 |
| 20260508225958 | 65 | 211 | 3.0 | 10.0 | 0.00 | 0.00 | 0.00 | 50 | 1014.4 |
| 20260508225945 | 65 | 234 | 3.0 | 9.0 | 0.00 | 0.00 | 0.00 | 50 | 1014.4 |
| 20260508225918 | 65 | 177 | 3.0 | 9.0 | 0.00 | 0.00 | 0.00 | 50 | 1014.3 |
| 20260508225537 | 65 | 216 | 3.0 | 10.0 | 0.00 | 0.00 | 0.00 | 49 | 1014.4 |
| 20260508225436 | 65 | 173 | 3.0 | 10.0 | 0.00 | 0.00 | 0.00 | 50 | 1014.4 |
| 20260508225336 | 65 | 215 | 2.0 | 10.0 | 0.00 | 0.00 | 0.00 | 51 | 1014.3 |
| 20260508225236 | 65 | 205 | 2.0 | 10.0 | 0.00 | 0.00 | 0.00 | 51 | 1014.4 |
| 20260508225137 | 65 | 200 | 2.0 | 10.0 | 0.00 | 0.00 | 0.00 | 50 | 1014.4 |
| 20260508225036 | 66 | 229 | 2.0 | 10.0 | 0.00 | 0.00 | 0.00 | 50 | 1014.4 |
| 20260508224934 | 66 | 200 | 2.0 | 10.0 | 0.00 | 0.00 | 0.00 | 51 | 1014.5 |
| 20260508224833 | 66 | 211 | 1.0 | 10.0 | 0.00 | 0.00 | 0.00 | 53 | 1014.4 |
| 20260508224731 | 66 | 168 | 1.0 | 10.0 | 0.00 | 0.00 | 0.00 | 54 | 1014.5 |
| 20260508224629 | 66 | 151 | 1.0 | 7.0 | 0.00 | 0.00 | 0.00 | 51 | 1014.4 |
| 20260508224528 | 66 | 191 | 1.0 | 7.0 | 0.00 | 0.00 | 0.00 | 52 | 1014.4 |
| 20260508224428 | 66 | 175 | 1.0 | 7.0 | 0.00 | 0.00 | 0.00 | 53 | 1014.4 |
| 20260508224329 | 66 | 175 | 1.0 | 7.0 | 0.00 | 0.00 | 0.00 | 55 | 1014.4 |
| 20260508224230 | 66 | 184 | 1.0 | 7.0 | 0.00 | 0.00 | 0.00 | 54 | 1014.4 |
| 20260508224140 | 67 | 131 | 1.0 | 8.0 | 0.00 | 0.00 | 0.00 | 58 | 1014.3 |
| 20260508224136 | 66 | 146 | 2.0 | 7.0 | 0.00 | 0.00 | 0.00 | 51 | 1014.4 |
| 20260508224126 | 66 | 180 | 1.0 | 7.0 | 0.00 | 0.00 | 0.00 | 54 | 1014.4 |
| 20260508224118 | 67 | 194 | 1.0 | 8.0 | 0.00 | 0.00 | 0.00 | 59 | 1014.5 |
| 20260508224107 | 66 | 143 | 1.0 | 7.0 | 0.00 | 0.00 | 0.00 | 53 | 1014.4 |
| 20260508224046 | 66 | 143 | 1.0 | 7.0 | 0.00 | 0.00 | 0.00 | 51 | 1014.4 |
| 20260508223758 | 67 | 136 | 2.0 | 8.0 | 0.00 | 0.00 | 0.00 | 55 | 1014.4 |
| 20260508223419 | 67 | 214 | 1.0 | 8.0 | 0.00 | 0.00 | 0.00 | 57 | 1014.3 |
| 20260508223318 | 67 | 184 | 1.0 | 8.0 | 0.00 | 0.00 | 0.00 | 55 | 1014.4 |
| 20260508223218 | 67 | 184 | 1.0 | 8.0 | 0.00 | 0.00 | 0.00 | 52 | 1014.3 |
| 20260508223119 | 67 | 304 | 1.0 | 8.0 | 0.00 | 0.00 | 0.00 | 51 | 1014.3 |
| 20260508223017 | 67 | 249 | 1.0 | 8.0 | 0.00 | 0.00 | 0.00 | 50 | 1014.3 |
| 20260508222917 | 67 | 191 | 1.0 | 8.0 | 0.00 | 0.00 | 0.00 | 52 | 1014.2 |
| 20260508222846 | 66 | 59 | 1.0 | 9.0 | 0.00 | 0.00 | 0.00 | 57 | 1014.3 |
| 20260508222834 | 66 | 190 | 1.0 | 8.0 | 0.00 | 0.00 | 0.00 | 54 | 1014.3 |
| 20260508222612 | 66 | 195 | 1.0 | 9.0 | 0.00 | 0.00 | 0.00 | 53 | 1014.3 |
| 20260508222509 | 66 | 195 | 1.0 | 9.0 | 0.00 | 0.00 | 0.00 | 51 | 1014.3 |
| 20260508222407 | 66 | 171 | 1.0 | 9.0 | 0.00 | 0.00 | 0.00 | 55 | 1014.3 |
| 20260508222340 | 66 | 208 | 1.0 | 9.0 | 0.00 | 0.00 | 0.00 | 53 | 1014.2 |
| 20260508222329 | 66 | 208 | 1.0 | 9.0 | 0.00 | 0.00 | 0.00 | 54 | 1014.3 |
| 20260508222104 | 66 | 119 | 2.0 | 9.0 | 0.00 | 0.00 | 0.00 | 57 | 1014.3 |
| 20260508222004 | 66 | 119 | 2.0 | 9.0 | 0.00 | 0.00 | 0.00 | 54 | 1014.3 |
| 20260508221903 | 66 | 217 | 2.0 | 9.0 | 0.00 | 0.00 | 0.00 | 51 | 1014.2 |
| 20260508221805 | 66 | 225 | 2.0 | 9.0 | 0.00 | 0.00 | 0.00 | 54 | 1014.2 |
| 20260508221740 | 66 | 286 | 2.0 | 9.0 | 0.00 | 0.00 | 0.00 | 49 | 1014.2 |
| 20260508221725 | 66 | 285 | 2.0 | 9.0 | 0.00 | 0.00 | 0.00 | 52 | 1014.2 |
| 20260508221500 | 66 | 286 | 3.0 | 9.0 | 0.00 | 0.00 | 0.00 | 49 | 1014.2 |
| 20260508221357 | 66 | 188 | 3.0 | 9.0 | 0.00 | 0.00 | 0.00 | 48 | 1014.2 |
| 20260508221256 | 66 | 161 | 3.0 | 9.0 | 0.00 | 0.00 | 0.00 | 49 | 1014.2 |
| 20260508221155 | 67 | 171 | 3.0 | 14.0 | 0.00 | 0.00 | 0.00 | 47 | 1014.2 |
| 20260508221055 | 66 | 265 | 3.0 | 14.0 | 0.00 | 0.00 | 0.00 | 49 | 1014.3 |
| 20260508220954 | 67 | 271 | 3.0 | 14.0 | 0.00 | 0.00 | 0.00 | 50 | 1014.2 |
| 20260508220854 | 67 | 237 | 2.0 | 14.0 | 0.00 | 0.00 | 0.00 | 50 | 1014.3 |
| 20260508220754 | 67 | 219 | 3.0 | 14.0 | 0.00 | 0.00 | 0.00 | 49 | 1014.2 |
| 20260508220655 | 67 | 192 | 3.0 | 14.0 | 0.00 | 0.00 | 0.00 | 50 | 1014.2 |
| 20260508220556 | 67 | 193 | 3.0 | 14.0 | 0.00 | 0.00 | 0.00 | 48 | 1014.2 |
| 20260508220454 | 67 | 226 | 3.0 | 14.0 | 0.00 | 0.00 | 0.00 | 49 | 1014.3 |
| 20260508220353 | 67 | 234 | 3.0 | 14.0 | 0.00 | 0.00 | 0.00 | 49 | 1014.2 |
| 20260508220252 | 67 | 213 | 2.0 | 14.0 | 0.00 | 0.00 | 0.00 | 49 | 1014.3 |
| 20260508220152 | 67 | 184 | 2.0 | 7.0 | 0.00 | 0.00 | 0.00 | 49 | 1014.3 |
| 20260508220105 | 67 | 232 | 2.0 | 7.0 | 0.00 | 0.00 | 0.00 | 52 | 1014.3 |
| 20260508215952 | 67 | 242 | 2.0 | 7.0 | 0.00 | 0.00 | 0.00 | 49 | 1014.4 |
| 20260508215852 | 67 | 223 | 2.0 | 7.0 | 0.00 | 0.00 | 0.00 | 48 | 1014.3 |
| 20260508215757 | 67 | 225 | 3.0 | 8.0 | 0.00 | 0.00 | 0.00 | 47 | 1014.4 |
| 20260508215656 | 67 | 203 | 3.0 | 9.0 | 0.00 | 0.00 | 0.00 | 48 | 1014.4 |
| 20260508215544 | 67 | 211 | 3.0 | 10.0 | 0.00 | 0.00 | 0.00 | 48 | 1014.5 |
| 20260508215444 | 67 | 178 | 3.0 | 10.0 | 0.00 | 0.00 | 0.00 | 48 | 1014.4 |
| 20260508215346 | 67 | 200 | 3.0 | 10.0 | 0.00 | 0.00 | 0.00 | 49 | 1014.4 |
| 20260508215245 | 67 | 152 | 2.0 | 10.0 | 0.00 | 0.00 | 0.00 | 52 | 1014.4 |
| 20260508215145 | 67 | 200 | 2.0 | 10.0 | 0.00 | 0.00 | 0.00 | 49 | 1014.4 |
| 20260508215043 | 67 | 199 | 2.0 | 10.0 | 0.00 | 0.00 | 0.00 | 48 | 1014.5 |
| 20260508214940 | 67 | 201 | 2.0 | 10.0 | 0.00 | 0.00 | 0.00 | 51 | 1014.4 |
| 20260508214840 | 67 | 218 | 2.0 | 10.0 | 0.00 | 0.00 | 0.00 | 47 | 1014.5 |
| 20260508214739 | 67 | 197 | 2.0 | 10.0 | 0.00 | 0.00 | 0.00 | 46 | 1014.5 |
| 20260508214638 | 67 | 229 | 2.0 | 8.0 | 0.00 | 0.00 | 0.00 | 48 | 1014.5 |
| 20260508214539 | 67 | 174 | 2.0 | 9.0 | 0.00 | 0.00 | 0.00 | 49 | 1014.5 |
| 20260508214439 | 67 | 180 | 2.0 | 9.0 | 0.00 | 0.00 | 0.00 | 48 | 1014.5 |
| 20260508214337 | 67 | 191 | 2.0 | 9.0 | 0.00 | 0.00 | 0.00 | 50 | 1014.5 |
| 20260508214238 | 67 | 207 | 2.0 | 11.0 | 0.00 | 0.00 | 0.00 | 49 | 1014.5 |
| 20260508214205 | 67 | 122 | 3.0 | 11.0 | 0.00 | 0.00 | 0.00 | 49 | 1014.5 |
| 20260508214156 | 67 | 236 | 3.0 | 11.0 | 0.00 | 0.00 | 0.00 | 50 | 1014.5 |
| 20260508213932 | 67 | 194 | 3.0 | 11.0 | 0.00 | 0.00 | 0.00 | 48 | 1014.5 |
| 20260508213833 | 67 | 156 | 3.0 | 11.0 | 0.00 | 0.00 | 0.00 | 48 | 1014.5 |
| 20260508213732 | 67 | 155 | 4.0 | 16.0 | 0.00 | 0.00 | 0.00 | 46 | 1014.5 |
| 20260508213710 | 67 | 235 | 3.0 | 16.0 | 0.00 | 0.00 | 0.00 | 47 | 1014.4 |
| 20260508213655 | 67 | 164 | 4.0 | 16.0 | 0.00 | 0.00 | 0.00 | 46 | 1014.5 |
| 20260508213430 | 67 | 204 | 3.0 | 16.0 | 0.00 | 0.00 | 0.00 | 49 | 1014.5 |
| 20260508213407 | 67 | 61 | 3.0 | 16.0 | 0.00 | 0.00 | 0.00 | 47 | 1014.5 |
| 20260508213355 | 67 | 173 | 3.0 | 16.0 | 0.00 | 0.00 | 0.00 | 51 | 1014.5 |
| 20260508213128 | 67 | 211 | 3.0 | 16.0 | 0.00 | 0.00 | 0.00 | 48 | 1014.5 |
| 20260508213054 | 68 | 215 | 2.0 | 16.0 | 0.00 | 0.00 | 0.00 | 45 | 1014.5 |
| 20260508213045 | 67 | 235 | 3.0 | 16.0 | 0.00 | 0.00 | 0.00 | 46 | 1014.4 |
| 20260508212819 | 68 | 259 | 2.0 | 16.0 | 0.00 | 0.00 | 0.00 | 48 | 1014.6 |
| 20260508212720 | 68 | 201 | 2.0 | 9.0 | 0.00 | 0.00 | 0.00 | 48 | 1014.5 |
| 20260508212621 | 68 | 213 | 2.0 | 7.0 | 0.00 | 0.00 | 0.00 | 49 | 1014.6 |
| 20260508212522 | 68 | 227 | 2.0 | 7.0 | 0.00 | 0.00 | 0.00 | 51 | 1014.5 |
| 20260508212420 | 68 | 200 | 2.0 | 7.0 | 0.00 | 0.00 | 0.00 | 49 | 1014.6 |
| 20260508212319 | 68 | 211 | 2.0 | 7.0 | 0.00 | 0.00 | 0.00 | 48 | 1014.5 |
| 20260508212218 | 68 | 242 | 2.0 | 7.0 | 0.00 | 0.00 | 0.00 | 49 | 1014.5 |
| 20260508212117 | 68 | 226 | 2.0 | 9.0 | 0.00 | 0.00 | 0.00 | 50 | 1014.6 |
| 20260508212015 | 68 | 226 | 2.0 | 9.0 | 0.00 | 0.00 | 0.00 | 49 | 1014.5 |
| 20260508211933 | 69 | 170 | 2.0 | 9.0 | 0.00 | 0.00 | 0.00 | 52 | 1014.7 |
| 20260508211709 | 68 | 207 | 2.0 | 9.0 | 0.00 | 0.00 | 0.00 | 51 | 1014.6 |
| 20260508211608 | 68 | 201 | 2.0 | 9.0 | 0.00 | 0.00 | 0.00 | 50 | 1014.6 |
| 20260508211509 | 68 | 229 | 2.0 | 9.0 | 0.00 | 0.00 | 0.00 | 45 | 1014.6 |
| 20260508211402 | 68 | 220 | 2.0 | 9.0 | 0.00 | 0.00 | 0.00 | 45 | 1014.6 |
| 20260508211303 | 68 | 198 | 2.0 | 9.0 | 0.00 | 0.00 | 0.00 | 45 | 1014.7 |
| 20260508211200 | 68 | 184 | 2.0 | 9.0 | 0.00 | 0.00 | 0.00 | 50 | 1014.6 |
| 20260508211102 | 68 | 207 | 2.0 | 7.0 | 0.00 | 0.00 | 0.00 | 49 | 1014.6 |
| 20260508210959 | 68 | 246 | 2.0 | 7.0 | 0.00 | 0.00 | 0.00 | 48 | 1014.6 |
| 20260508210853 | 68 | 135 | 2.0 | 6.0 | 0.00 | 0.00 | 0.00 | 49 | 1014.6 |
| 20260508210752 | 68 | 296 | 2.0 | 6.0 | 0.00 | 0.00 | 0.00 | 48 | 1014.6 |
| 20260508210653 | 68 | 200 | 2.0 | 10.0 | 0.00 | 0.00 | 0.00 | 46 | 1014.6 |
| 20260508210554 | 68 | 216 | 2.0 | 10.0 | 0.00 | 0.00 | 0.00 | 46 | 1014.6 |
| 20260508210518 | 68 | 234 | 2.0 | 10.0 | 0.00 | 0.00 | 0.00 | 42 | 1014.7 |
| 20260508210508 | 68 | 225 | 2.0 | 10.0 | 0.00 | 0.00 | 0.00 | 45 | 1014.6 |
| 20260508210246 | 68 | 233 | 2.0 | 10.0 | 0.00 | 0.00 | 0.00 | 48 | 1014.7 |
| 20260508210147 | 68 | 146 | 2.0 | 10.0 | 0.00 | 0.00 | 0.00 | 47 | 1014.7 |
| 20260508210049 | 68 | 146 | 2.0 | 10.0 | 0.00 | 0.00 | 0.00 | 43 | 1014.7 |
| 20260508205947 | 68 | 146 | 2.0 | 10.0 | 0.00 | 0.00 | 0.00 | 46 | 1014.8 |
| 20260508205834 | 68 | 146 | 3.0 | 10.0 | 0.00 | 0.00 | 0.00 | 49 | 1014.8 |
| 20260508205732 | 68 | 198 | 2.0 | 10.0 | 0.00 | 0.00 | 0.00 | 50 | 1014.8 |
| 20260508205632 | 68 | 114 | 2.0 | 10.0 | 0.00 | 0.00 | 0.00 | 51 | 1015.0 |
| 20260508205534 | 68 | 113 | 2.0 | 10.0 | 0.00 | 0.00 | 0.00 | 45 | 1014.8 |
| 20260508205433 | 68 | 325 | 2.0 | 10.0 | 0.00 | 0.00 | 0.00 | 48 | 1014.8 |
| 20260508205357 | 68 | 192 | 2.0 | 10.0 | 0.00 | 0.00 | 0.00 | 45 | 1014.8 |
| 20260508205347 | 68 | 295 | 2.0 | 10.0 | 0.00 | 0.00 | 0.00 | 46 | 1015.0 |
| 20260508205126 | 67 | 220 | 2.0 | 10.0 | 0.00 | 0.00 | 0.00 | 50 | 1014.7 |
| 20260508205028 | 67 | 234 | 3.0 | 10.0 | 0.00 | 0.00 | 0.00 | 45 | 1014.8 |
| 20260508204927 | 67 | 231 | 2.0 | 10.0 | 0.00 | 0.00 | 0.00 | 45 | 1014.8 |
| 20260508204833 | 67 | 231 | 2.0 | 8.0 | 0.00 | 0.00 | 0.00 | 43 | 1014.8 |
| 20260508204824 | 68 | 244 | 2.0 | 10.0 | 0.00 | 0.00 | 0.00 | 46 | 1014.8 |
| 20260508204816 | 67 | 231 | 2.0 | 8.0 | 0.00 | 0.00 | 0.00 | 46 | 1014.8 |
| 20260508204757 | 68 | 275 | 2.0 | 9.0 | 0.00 | 0.00 | 0.00 | 48 | 1014.8 |
| 20260508204421 | 67 | 251 | 2.0 | 8.0 | 0.00 | 0.00 | 0.00 | 43 | 1014.8 |
| 20260508204338 | 67 | 151 | 2.0 | 8.0 | 0.00 | 0.00 | 0.00 | 43 | 1014.8 |
| 20260508204327 | 67 | 151 | 2.0 | 8.0 | 0.00 | 0.00 | 0.00 | 43 | 1014.8 |
| 20260508204111 | 67 | 150 | 2.0 | 8.0 | 0.00 | 0.00 | 0.00 | 44 | 1014.8 |
| 20260508204011 | 67 | 191 | 2.0 | 8.0 | 0.00 | 0.00 | 0.00 | 49 | 1014.8 |
| 20260508203941 | 67 | 155 | 2.0 | 7.0 | 0.00 | 0.00 | 0.00 | 48 | 1015.0 |
| 20260508203930 | 67 | 159 | 2.0 | 7.0 | 0.00 | 0.00 | 0.00 | 46 | 1014.8 |
| 20260508203710 | 67 | 248 | 2.0 | 7.0 | 0.00 | 0.00 | 0.00 | 47 | 1014.8 |
| 20260508203608 | 67 | 229 | 2.0 | 7.0 | 0.00 | 0.00 | 0.00 | 47 | 1014.8 |
| 20260508203509 | 67 | 228 | 2.0 | 7.0 | 0.00 | 0.00 | 0.00 | 43 | 1014.8 |
| 20260508203404 | 67 | 216 | 2.0 | 7.0 | 0.00 | 0.00 | 0.00 | 46 | 1015.0 |
| 20260508203258 | 67 | 273 | 2.0 | 6.0 | 0.00 | 0.00 | 0.00 | 47 | 1014.8 |
| 20260508203157 | 67 | 245 | 2.0 | 6.0 | 0.00 | 0.00 | 0.00 | 47 | 1014.8 |
| 20260508203126 | 67 | 192 | 2.0 | 9.0 | 0.00 | 0.00 | 0.00 | 41 | 1014.8 |
| 20260508203116 | 67 | 192 | 2.0 | 6.0 | 0.00 | 0.00 | 0.00 | 41 | 1014.8 |
| 20260508202858 | 67 | 205 | 2.0 | 9.0 | 0.00 | 0.00 | 0.00 | 46 | 1014.7 |
| 20260508202750 | 67 | 234 | 2.0 | 9.0 | 0.00 | 0.00 | 0.00 | 45 | 1014.8 |
| 20260508202651 | 67 | 234 | 2.0 | 9.0 | 0.00 | 0.00 | 0.00 | 45 | 1014.7 |
| 20260508202550 | 67 | 234 | 3.0 | 9.0 | 0.00 | 0.00 | 0.00 | 49 | 1014.8 |
| 20260508202450 | 67 | 242 | 3.0 | 9.0 | 0.00 | 0.00 | 0.00 | 45 | 1014.8 |
| 20260508202352 | 67 | 197 | 3.0 | 9.0 | 0.00 | 0.00 | 0.00 | 47 | 1014.8 |
| 20260508202250 | 67 | 188 | 3.0 | 9.0 | 0.00 | 0.00 | 0.00 | 51 | 1014.8 |
| 20260508202152 | 67 | 205 | 3.0 | 9.0 | 0.00 | 0.00 | 0.00 | 45 | 1014.8 |
| 20260508202101 | 67 | 226 | 3.0 | 8.0 | 0.00 | 0.00 | 0.00 | 40 | 1014.8 |
| 20260508202051 | 67 | 222 | 3.0 | 8.0 | 0.00 | 0.00 | 0.00 | 47 | 1014.8 |
| 20260508202045 | 67 | 229 | 3.0 | 8.0 | 0.00 | 0.00 | 0.00 | 39 | 1014.8 |
| 20260508202025 | 67 | 225 | 3.0 | 8.0 | 0.00 | 0.00 | 0.00 | 44 | 1014.8 |
| 20260508201648 | 67 | 239 | 3.0 | 8.0 | 0.00 | 0.00 | 0.00 | 43 | 1014.8 |
| 20260508201548 | 67 | 224 | 2.0 | 8.0 | 0.00 | 0.00 | 0.00 | 46 | 1015.0 |
| 20260508201448 | 67 | 193 | 2.0 | 8.0 | 0.00 | 0.00 | 0.00 | 42 | 1014.8 |
| 20260508201348 | 67 | 250 | 3.0 | 8.0 | 0.00 | 0.00 | 0.00 | 41 | 1014.8 |
| 20260508201247 | 67 | 252 | 3.0 | 8.0 | 0.00 | 0.00 | 0.00 | 41 | 1014.8 |
| 20260508201147 | 67 | 253 | 2.0 | 8.0 | 0.00 | 0.00 | 0.00 | 44 | 1014.8 |
| 20260508201040 | 67 | 220 | 2.0 | 7.0 | 0.00 | 0.00 | 0.00 | 47 | 1015.0 |
| 20260508200940 | 67 | 134 | 2.0 | 7.0 | 0.00 | 0.00 | 0.00 | 45 | 1015.0 |
| 20260508200842 | 68 | 134 | 2.0 | 7.0 | 0.00 | 0.00 | 0.00 | 47 | 1015.0 |
| 20260508200740 | 68 | 184 | 2.0 | 7.0 | 0.00 | 0.00 | 0.00 | 46 | 1015.0 |
| 20260508200641 | 68 | 298 | 2.0 | 7.0 | 0.00 | 0.00 | 0.00 | 43 | 1015.1 |
| 20260508200609 | 68 | 252 | 2.0 | 7.0 | 0.00 | 0.00 | 0.00 | 45 | 1015.1 |
| 20260508200559 | 68 | 237 | 2.0 | 7.0 | 0.00 | 0.00 | 0.00 | 45 | 1015.1 |
| 20260508200339 | 68 | 176 | 2.0 | 7.0 | 0.00 | 0.00 | 0.00 | 46 | 1015.1 |
| 20260508200314 | 68 | 155 | 2.0 | 8.0 | 0.00 | 0.00 | 0.00 | 49 | 1015.2 |
| 20260508200303 | 68 | 233 | 2.0 | 8.0 | 0.00 | 0.00 | 0.00 | 44 | 1015.1 |
| 20260508200033 | 68 | 162 | 2.0 | 8.0 | 0.00 | 0.00 | 0.00 | 50 | 1015.3 |
| 20260508195933 | 68 | 163 | 2.0 | 8.0 | 0.00 | 0.00 | 0.00 | 48 | 1015.3 |
| 20260508195830 | 68 | 168 | 2.0 | 8.0 | 0.00 | 0.00 | 0.00 | 46 | 1015.3 |
| 20260508195801 | 68 | 192 | 2.0 | 10.0 | 0.00 | 0.00 | 0.00 | 46 | 1015.4 |
| 20260508195751 | 68 | 192 | 2.0 | 10.0 | 0.00 | 0.00 | 0.00 | 42 | 1015.3 |
| 20260508195558 | 68 | 225 | 2.0 | 10.0 | 0.00 | 0.00 | 0.00 | 40 | 1015.3 |
| 20260508195547 | 68 | 170 | 2.0 | 10.0 | 0.00 | 0.00 | 0.00 | 43 | 1015.4 |
| 20260508195327 | 68 | 269 | 2.0 | 10.0 | 0.00 | 0.00 | 0.00 | 41 | 1015.4 |
| 20260508195253 | 68 | 180 | 2.0 | 10.0 | 0.00 | 0.00 | 0.00 | 43 | 1015.4 |
| 20260508195245 | 68 | 180 | 2.0 | 10.0 | 0.00 | 0.00 | 0.00 | 43 | 1015.3 |
| 20260508195023 | 68 | 177 | 2.0 | 10.0 | 0.00 | 0.00 | 0.00 | 40 | 1015.4 |
| 20260508194951 | 68 | 181 | 2.0 | 7.0 | 0.00 | 0.00 | 0.00 | 44 | 1015.4 |
| 20260508194942 | 68 | 174 | 2.0 | 10.0 | 0.00 | 0.00 | 0.00 | 45 | 1015.4 |
| 20260508194752 | 68 | 229 | 2.0 | 7.0 | 0.00 | 0.00 | 0.00 | 41 | 1015.4 |
| 20260508194742 | 68 | 182 | 2.0 | 7.0 | 0.00 | 0.00 | 0.00 | 44 | 1015.4 |
| 20260508194519 | 68 | 229 | 2.0 | 7.0 | 0.00 | 0.00 | 0.00 | 43 | 1015.4 |
| 20260508194417 | 68 | 215 | 2.0 | 6.0 | 0.00 | 0.00 | 0.00 | 45 | 1015.4 |
| 20260508194319 | 67 | 164 | 2.0 | 6.0 | 0.00 | 0.00 | 0.00 | 43 | 1015.4 |
| 20260508194217 | 67 | 164 | 2.0 | 6.0 | 0.00 | 0.00 | 0.00 | 43 | 1015.5 |
| 20260508194117 | 67 | 188 | 2.0 | 6.0 | 0.00 | 0.00 | 0.00 | 43 | 1015.4 |
| 20260508194030 | 67 | 196 | 2.0 | 6.0 | 0.00 | 0.00 | 0.00 | 44 | 1015.6 |
| 20260508194019 | 67 | 198 | 2.0 | 6.0 | 0.00 | 0.00 | 0.00 | 45 | 1015.6 |
| 20260508194011 | 67 | 224 | 2.0 | 5.0 | 0.00 | 0.00 | 0.00 | 43 | 1015.6 |
| 20260508193953 | 67 | 175 | 2.0 | 6.0 | 0.00 | 0.00 | 0.00 | 43 | 1015.5 |
| 20260508193612 | 67 | 169 | 2.0 | 5.0 | 0.00 | 0.00 | 0.00 | 45 | 1015.6 |
| 20260508193511 | 67 | 169 | 2.0 | 5.0 | 0.00 | 0.00 | 0.00 | 41 | 1015.7 |
| 20260508193412 | 67 | 147 | 2.0 | 5.0 | 0.00 | 0.00 | 0.00 | 40 | 1015.6 |
| 20260508193404 | 67 | 209 | 2.0 | 7.0 | 0.00 | 0.00 | 0.00 | 38 | 1015.7 |
| 20260508193359 | 67 | 225 | 3.0 | 7.0 | 0.00 | 0.00 | 0.00 | 43 | 1015.6 |
| 20260508193338 | 67 | 222 | 3.0 | 7.0 | 0.00 | 0.00 | 0.00 | 42 | 1015.6 |
| 20260508193210 | 67 | 232 | 3.0 | 7.0 | 0.00 | 0.00 | 0.00 | 42 | 1015.6 |
| 20260508193144 | 67 | 207 | 3.0 | 7.0 | 0.00 | 0.00 | 0.00 | 40 | 1016.0 |
| 20260508192831 | 67 | 192 | 2.0 | 7.0 | 0.00 | 0.00 | 0.00 | 43 | 1015.6 |
| 20260508192819 | 67 | 175 | 2.0 | 7.0 | 0.00 | 0.00 | 0.00 | 43 | 1015.6 |
| 20260508192554 | 67 | 147 | 2.0 | 7.0 | 0.00 | 0.00 | 0.00 | 42 | 1015.7 |
| 20260508192455 | 67 | 168 | 2.0 | 7.0 | 0.00 | 0.00 | 0.00 | 40 | 1015.6 |
| 20260508192354 | 67 | 167 | 2.0 | 7.0 | 0.00 | 0.00 | 0.00 | 41 | 1015.7 |
| 20260508192253 | 67 | 200 | 2.0 | 7.0 | 0.00 | 0.00 | 0.00 | 40 | 1015.7 |
| 20260508192154 | 67 | 200 | 2.0 | 9.0 | 0.00 | 0.00 | 0.00 | 40 | 1015.8 |
| 20260508192055 | 67 | 190 | 2.0 | 9.0 | 0.00 | 0.00 | 0.00 | 40 | 1015.7 |
| 20260508191954 | 67 | 163 | 2.0 | 9.0 | 0.00 | 0.00 | 0.00 | 45 | 1015.8 |
| 20260508191853 | 67 | 123 | 2.0 | 9.0 | 0.00 | 0.00 | 0.00 | 43 | 1015.8 |
| 20260508191753 | 67 | 121 | 3.0 | 9.0 | 0.00 | 0.00 | 0.00 | 41 | 1015.8 |
| 20260508191654 | 67 | 190 | 3.0 | 9.0 | 0.00 | 0.00 | 0.00 | 43 | 1015.8 |
| 20260508191553 | 67 | 234 | 2.0 | 9.0 | 0.00 | 0.00 | 0.00 | 45 | 1015.8 |
| 20260508191453 | 67 | 250 | 2.0 | 9.0 | 0.00 | 0.00 | 0.00 | 41 | 1015.9 |
| 20260508191434 | 67 | 189 | 3.0 | 9.0 | 0.00 | 0.00 | 0.00 | 41 | 1015.8 |
| 20260508191419 | 67 | 189 | 3.0 | 9.0 | 0.00 | 0.00 | 0.00 | 44 | 1015.8 |
| 20260508191153 | 67 | 268 | 3.0 | 9.0 | 0.00 | 0.00 | 0.00 | 40 | 1015.8 |
| 20260508191047 | 66 | 250 | 3.0 | 9.0 | 0.00 | 0.00 | 0.00 | 41 | 1015.8 |
| 20260508191018 | 66 | 294 | 3.0 | 9.0 | 0.00 | 0.00 | 0.00 | 42 | 1015.8 |
| 20260508191009 | 66 | 227 | 3.0 | 9.0 | 0.00 | 0.00 | 0.00 | 42 | 1015.9 |
| 20260508190747 | 66 | 186 | 3.0 | 9.0 | 0.00 | 0.00 | 0.00 | 41 | 1015.8 |
| 20260508190648 | 66 | 190 | 3.0 | 7.0 | 0.00 | 0.00 | 0.00 | 37 | 1015.8 |
| 20260508190548 | 67 | 191 | 3.0 | 7.0 | 0.00 | 0.00 | 0.00 | 43 | 1015.9 |
| 20260508190448 | 66 | 211 | 3.0 | 7.0 | 0.00 | 0.00 | 0.00 | 38 | 1015.9 |
| 20260508190350 | 67 | 186 | 2.0 | 7.0 | 0.00 | 0.00 | 0.00 | 44 | 1015.9 |
| 20260508190247 | 67 | 235 | 2.0 | 7.0 | 0.00 | 0.00 | 0.00 | 44 | 1015.9 |
| 20260508190144 | 67 | 243 | 2.0 | 7.0 | 0.00 | 0.00 | 0.00 | 38 | 1015.9 |
| 20260508190045 | 67 | 192 | 2.0 | 7.0 | 0.00 | 0.00 | 0.00 | 39 | 1015.8 |
| 20260508185943 | 67 | 175 | 2.0 | 7.0 | 0.00 | 0.00 | 0.00 | 45 | 1015.9 |
| 20260508185844 | 67 | 162 | 2.0 | 7.0 | 0.00 | 0.00 | 0.00 | 47 | 1015.9 |
| 20260508185745 | 67 | 186 | 2.0 | 7.0 | 0.00 | 0.00 | 0.00 | 45 | 1015.9 |
| 20260508185644 | 66 | 142 | 2.0 | 7.0 | 0.00 | 0.00 | 0.00 | 42 | 1016.0 |
| 20260508185544 | 66 | 141 | 2.0 | 7.0 | 0.00 | 0.00 | 0.00 | 42 | 1016.0 |
| 20260508185511 | 66 | 183 | 2.0 | 7.0 | 0.00 | 0.00 | 0.00 | 43 | 1016.0 |
| 20260508185501 | 66 | 136 | 2.0 | 7.0 | 0.00 | 0.00 | 0.00 | 45 | 1016.0 |
| 20260508185240 | 66 | 188 | 2.0 | 7.0 | 0.00 | 0.00 | 0.00 | 41 | 1016.1 |
| 20260508185139 | 66 | 188 | 2.0 | 7.0 | 0.00 | 0.00 | 0.00 | 43 | 1016.1 |
| 20260508185038 | 66 | 188 | 2.0 | 7.0 | 0.00 | 0.00 | 0.00 | 41 | 1016.2 |
| 20260508184938 | 66 | 172 | 1.0 | 6.0 | 0.00 | 0.00 | 0.00 | 42 | 1016.3 |
| 20260508184834 | 66 | 184 | 1.0 | 5.0 | 0.00 | 0.00 | 0.00 | 45 | 1016.3 |
| 20260508184734 | 66 | 208 | 1.0 | 7.0 | 0.00 | 0.00 | 0.00 | 47 | 1016.4 |
| 20260508184633 | 66 | 95 | 1.0 | 7.0 | 0.00 | 0.00 | 0.00 | 45 | 1016.4 |
| 20260508184534 | 66 | 90 | 1.0 | 7.0 | 0.00 | 0.00 | 0.00 | 45 | 1016.4 |
| 20260508184503 | 66 | 135 | 2.0 | 7.0 | 0.00 | 0.00 | 0.00 | 45 | 1016.5 |
| 20260508184452 | 66 | 136 | 1.0 | 7.0 | 0.00 | 0.00 | 0.00 | 45 | 1016.5 |
| 20260508184228 | 66 | 135 | 2.0 | 7.0 | 0.00 | 0.00 | 0.00 | 44 | 1016.5 |
| 20260508184159 | 66 | 144 | 2.0 | 7.0 | 0.00 | 0.00 | 0.00 | 48 | 1016.5 |
| 20260508184147 | 66 | 130 | 2.0 | 7.0 | 0.00 | 0.00 | 0.00 | 48 | 1016.5 |
| 20260508183929 | 66 | 192 | 2.0 | 7.0 | 0.00 | 0.00 | 0.00 | 47 | 1016.5 |
| 20260508183828 | 66 | 203 | 2.0 | 8.0 | 0.00 | 0.00 | 0.00 | 45 | 1016.5 |
| 20260508183728 | 65 | 132 | 2.0 | 8.0 | 0.00 | 0.00 | 0.00 | 50 | 1016.7 |
| 20260508183628 | 65 | 195 | 2.0 | 8.0 | 0.00 | 0.00 | 0.00 | 46 | 1016.7 |
| 20260508183526 | 65 | 194 | 2.0 | 8.0 | 0.00 | 0.00 | 0.00 | 47 | 1016.7 |
| 20260508183426 | 65 | 194 | 2.0 | 8.0 | 0.00 | 0.00 | 0.00 | 41 | 1016.7 |
| 20260508183358 | 65 | 188 | 2.0 | 8.0 | 0.00 | 0.00 | 0.00 | 45 | 1016.7 |
| 20260508183346 | 65 | 188 | 2.0 | 8.0 | 0.00 | 0.00 | 0.00 | 44 | 1016.7 |
| 20260508183126 | 65 | 205 | 2.0 | 8.0 | 0.00 | 0.00 | 0.00 | 47 | 1016.7 |
| 20260508183026 | 65 | 197 | 2.0 | 8.0 | 0.00 | 0.00 | 0.00 | 48 | 1016.7 |
| 20260508182925 | 65 | 214 | 2.0 | 8.0 | 0.00 | 0.00 | 0.00 | 46 | 1016.8 |
| 20260508182904 | 65 | 200 | 2.0 | 6.0 | 0.00 | 0.00 | 0.00 | 47 | 1016.8 |
| 20260508182853 | 65 | 152 | 2.0 | 6.0 | 0.00 | 0.00 | 0.00 | 46 | 1016.7 |
| 20260508182620 | 65 | 197 | 2.0 | 6.0 | 0.00 | 0.00 | 0.00 | 44 | 1016.5 |
| 20260508182556 | 65 | 212 | 2.0 | 6.0 | 0.00 | 0.00 | 0.00 | 40 | 1016.5 |
| 20260508182545 | 65 | 212 | 2.0 | 6.0 | 0.00 | 0.00 | 0.00 | 40 | 1016.7 |
| 20260508182318 | 65 | 212 | 3.0 | 6.0 | 0.00 | 0.00 | 0.00 | 39 | 1016.8 |
| 20260508182252 | 65 | 219 | 3.0 | 6.0 | 0.00 | 0.00 | 0.00 | 39 | 1016.7 |
| 20260508182241 | 65 | 207 | 2.0 | 6.0 | 0.00 | 0.00 | 0.00 | 40 | 1016.7 |
| 20260508182018 | 65 | 219 | 3.0 | 6.0 | 0.00 | 0.00 | 0.00 | 43 | 1016.8 |
| 20260508181918 | 65 | 218 | 3.0 | 6.0 | 0.00 | 0.00 | 0.00 | 43 | 1016.8 |
| 20260508181817 | 65 | 202 | 3.0 | 8.0 | 0.00 | 0.00 | 0.00 | 51 | 1016.8 |
| 20260508181716 | 65 | 188 | 3.0 | 8.0 | 0.00 | 0.00 | 0.00 | 53 | 1016.8 |
| 20260508181613 | 65 | 186 | 3.0 | 8.0 | 0.00 | 0.00 | 0.00 | 44 | 1016.8 |
| 20260508181515 | 65 | 186 | 3.0 | 8.0 | 0.00 | 0.00 | 0.00 | 44 | 1016.8 |
| 20260508181411 | 65 | 177 | 4.0 | 8.0 | 0.00 | 0.00 | 0.00 | 45 | 1016.9 |
| 20260508181312 | 65 | 236 | 4.0 | 8.0 | 0.00 | 0.00 | 0.00 | 46 | 1016.8 |
| 20260508181213 | 65 | 237 | 4.0 | 8.0 | 0.00 | 0.00 | 0.00 | 43 | 1016.8 |
| 20260508181111 | 65 | 135 | 4.0 | 8.0 | 0.00 | 0.00 | 0.00 | 43 | 1016.8 |
| 20260508181013 | 65 | 228 | 3.0 | 8.0 | 0.00 | 0.00 | 0.00 | 42 | 1016.9 |
| 20260508180908 | 65 | 208 | 3.0 | 8.0 | 0.00 | 0.00 | 0.00 | 44 | 1017.0 |
| 20260508180808 | 65 | 221 | 3.0 | 8.0 | 0.00 | 0.00 | 0.00 | 46 | 1017.1 |
| 20260508180708 | 65 | 178 | 3.0 | 8.0 | 0.00 | 0.00 | 0.00 | 42 | 1017.2 |
| 20260508180608 | 64 | 227 | 3.0 | 8.0 | 0.00 | 0.00 | 0.00 | 45 | 1017.1 |
| 20260508180533 | 64 | 180 | 2.0 | 8.0 | 0.00 | 0.00 | 0.00 | 50 | 1017.2 |
| 20260508180524 | 64 | 175 | 3.0 | 8.0 | 0.00 | 0.00 | 0.00 | 47 | 1017.1 |
| 20260508180332 | 64 | 110 | 2.0 | 8.0 | 0.00 | 0.00 | 0.00 | 44 | 1017.2 |
| 20260508180323 | 64 | 213 | 2.0 | 8.0 | 0.00 | 0.00 | 0.00 | 49 | 1017.2 |
| 20260508180001 | 64 | 350 | 2.0 | 8.0 | 0.00 | 0.00 | 0.00 | 44 | 1017.2 |
| 20260508175902 | 64 | 30 | 2.0 | 8.0 | 0.00 | 0.00 | 0.00 | 42 | 1017.2 |
| 20260508175836 | 64 | 292 | 2.0 | 8.0 | 0.00 | 0.00 | 0.00 | 45 | 1017.2 |
| 20260508175824 | 64 | 306 | 2.0 | 8.0 | 0.00 | 0.00 | 0.00 | 43 | 1017.1 |
| 20260508175603 | 64 | 230 | 2.0 | 6.0 | 0.00 | 0.00 | 0.00 | 45 | 1017.2 |
| 20260508175533 | 64 | 171 | 2.0 | 7.0 | 0.00 | 0.00 | 0.00 | 49 | 1017.2 |
| 20260508175523 | 64 | 126 | 2.0 | 6.0 | 0.00 | 0.00 | 0.00 | 46 | 1017.2 |
| 20260508175306 | 64 | 169 | 2.0 | 7.0 | 0.00 | 0.00 | 0.00 | 46 | 1017.2 |
| 20260508175157 | 64 | 275 | 2.0 | 7.0 | 0.00 | 0.00 | 0.00 | 44 | 1017.2 |
| 20260508175056 | 64 | 209 | 2.0 | 7.0 | 0.00 | 0.00 | 0.00 | 47 | 1017.3 |
| 20260508174958 | 64 | 203 | 2.0 | 7.0 | 0.00 | 0.00 | 0.00 | 44 | 1017.2 |
| 20260508174856 | 64 | 237 | 2.0 | 7.0 | 0.00 | 0.00 | 0.00 | 42 | 1017.2 |
| 20260508174828 | 64 | 177 | 2.0 | 7.0 | 0.00 | 0.00 | 0.00 | 47 | 1017.3 |
| 20260508174813 | 64 | 239 | 2.0 | 7.0 | 0.00 | 0.00 | 0.00 | 44 | 1017.3 |
| 20260508174747 | 64 | 225 | 2.0 | 7.0 | 0.00 | 0.00 | 0.00 | 41 | 1017.2 |
| 20260508174624 | 64 | 167 | 2.0 | 7.0 | 0.00 | 0.00 | 0.00 | 42 | 1017.2 |
| 20260508174350 | 64 | 246 | 3.0 | 7.0 | 0.00 | 0.00 | 0.00 | 43 | 1017.3 |
| 20260508174251 | 64 | 252 | 3.0 | 7.0 | 0.00 | 0.00 | 0.00 | 41 | 1017.4 |
| 20260508174147 | 64 | 215 | 3.0 | 7.0 | 0.00 | 0.00 | 0.00 | 50 | 1017.4 |
| 20260508174046 | 64 | 150 | 3.0 | 7.0 | 0.00 | 0.00 | 0.00 | 46 | 1017.4 |
| 20260508173946 | 64 | 198 | 3.0 | 7.0 | 0.00 | 0.00 | 0.00 | 44 | 1017.4 |
| 20260508173845 | 64 | 226 | 3.0 | 7.0 | 0.00 | 0.00 | 0.00 | 44 | 1017.5 |
| 20260508173813 | 64 | 184 | 3.0 | 7.0 | 0.00 | 0.00 | 0.00 | 45 | 1017.4 |
| 20260508173802 | 64 | 163 | 3.0 | 7.0 | 0.00 | 0.00 | 0.00 | 43 | 1017.5 |
| 20260508173544 | 64 | 160 | 3.0 | 7.0 | 0.00 | 0.00 | 0.00 | 46 | 1017.4 |
| 20260508173443 | 64 | 229 | 2.0 | 7.0 | 0.00 | 0.00 | 0.00 | 49 | 1017.4 |
| 20260508173341 | 64 | 205 | 2.0 | 7.0 | 0.00 | 0.00 | 0.00 | 48 | 1017.4 |
| 20260508173242 | 64 | 167 | 2.0 | 7.0 | 0.00 | 0.00 | 0.00 | 51 | 1017.4 |
| 20260508173144 | 64 | 171 | 2.0 | 7.0 | 0.00 | 0.00 | 0.00 | 49 | 1017.4 |
| 20260508173044 | 63 | 166 | 2.0 | 7.0 | 0.00 | 0.00 | 0.00 | 48 | 1017.4 |
| 20260508172939 | 63 | 153 | 2.0 | 7.0 | 0.00 | 0.00 | 0.00 | 47 | 1017.4 |
| 20260508172837 | 63 | 150 | 2.0 | 7.0 | 0.00 | 0.00 | 0.00 | 46 | 1017.5 |
| 20260508172737 | 63 | 163 | 2.0 | 7.0 | 0.00 | 0.00 | 0.00 | 48 | 1017.5 |
| 20260508172637 | 63 | 168 | 2.0 | 7.0 | 0.00 | 0.00 | 0.00 | 51 | 1017.5 |
| 20260508172537 | 63 | 214 | 2.0 | 7.0 | 0.00 | 0.00 | 0.00 | 52 | 1017.4 |
| 20260508172438 | 63 | 214 | 2.0 | 7.0 | 0.00 | 0.00 | 0.00 | 47 | 1017.5 |
| 20260508172340 | 63 | 223 | 2.0 | 7.0 | 0.00 | 0.00 | 0.00 | 53 | 1017.4 |
| 20260508172233 | 62 | 278 | 2.0 | 6.0 | 0.00 | 0.00 | 0.00 | 54 | 1017.3 |
| 20260508172134 | 62 | 140 | 2.0 | 6.0 | 0.00 | 0.00 | 0.00 | 50 | 1017.5 |
| 20260508172033 | 62 | 201 | 2.0 | 6.0 | 0.00 | 0.00 | 0.00 | 47 | 1017.4 |
| 20260508171933 | 62 | 121 | 2.0 | 6.0 | 0.00 | 0.00 | 0.00 | 44 | 1017.4 |
| 20260508171835 | 62 | 119 | 2.0 | 6.0 | 0.00 | 0.00 | 0.00 | 49 | 1017.5 |
| 20260508171811 | 62 | 204 | 2.0 | 6.0 | 0.00 | 0.00 | 0.00 | 45 | 1017.5 |
| 20260508171758 | 62 | 204 | 2.0 | 6.0 | 0.00 | 0.00 | 0.00 | 47 | 1017.5 |
| 20260508171607 | 62 | 187 | 1.0 | 6.0 | 0.00 | 0.00 | 0.00 | 46 | 1017.5 |
| 20260508171556 | 62 | 199 | 2.0 | 6.0 | 0.00 | 0.00 | 0.00 | 46 | 1017.4 |
| 20260508171335 | 63 | 206 | 1.0 | 6.0 | 0.00 | 0.00 | 0.00 | 49 | 1017.5 |
| 20260508171235 | 63 | 186 | 1.0 | 5.0 | 0.00 | 0.00 | 0.00 | 48 | 1017.6 |
| 20260508171133 | 62 | 213 | 1.0 | 5.0 | 0.00 | 0.00 | 0.00 | 48 | 1017.6 |
| 20260508171033 | 62 | 215 | 2.0 | 5.0 | 0.00 | 0.00 | 0.00 | 45 | 1017.6 |
| 20260508170933 | 62 | 200 | 2.0 | 5.0 | 0.00 | 0.00 | 0.00 | 53 | 1017.5 |
| 20260508170833 | 62 | 200 | 2.0 | 6.0 | 0.00 | 0.00 | 0.00 | 52 | 1017.7 |
| 20260508170733 | 61 | 200 | 2.0 | 6.0 | 0.00 | 0.00 | 0.00 | 52 | 1017.6 |
| 20260508170635 | 61 | 172 | 2.0 | 6.0 | 0.00 | 0.00 | 0.00 | 52 | 1017.6 |
| 20260508170534 | 61 | 159 | 2.0 | 6.0 | 0.00 | 0.00 | 0.00 | 45 | 1017.6 |
| 20260508170433 | 61 | 57 | 2.0 | 6.0 | 0.00 | 0.00 | 0.00 | 43 | 1017.6 |
| 20260508170403 | 61 | 57 | 2.0 | 6.0 | 0.00 | 0.00 | 0.00 | 45 | 1017.7 |
| 20260508170354 | 61 | 59 | 2.0 | 6.0 | 0.00 | 0.00 | 0.00 | 43 | 1017.6 |
| 20260508170133 | 61 | 61 | 2.0 | 6.0 | 0.00 | 0.00 | 0.00 | 43 | 1017.7 |
| 20260508170035 | 61 | 133 | 2.0 | 6.0 | 0.00 | 0.00 | 0.00 | 48 | 1017.7 |
| 20260508170009 | 61 | 128 | 2.0 | 6.0 | 0.00 | 0.00 | 0.00 | 46 | 1017.8 |
| 20260508165956 | 61 | 87 | 2.0 | 6.0 | 0.00 | 0.00 | 0.00 | 51 | 1017.8 |
| 20260508165736 | 61 | 204 | 2.0 | 6.0 | 0.00 | 0.00 | 0.00 | 43 | 1017.8 |
| 20260508165631 | 61 | 105 | 2.0 | 6.0 | 0.00 | 0.00 | 0.00 | 48 | 1017.8 |
| 20260508165602 | 61 | 212 | 2.0 | 6.0 | 0.00 | 0.00 | 0.00 | 47 | 1017.8 |
| 20260508165552 | 61 | 188 | 2.0 | 6.0 | 0.00 | 0.00 | 0.00 | 49 | 1017.8 |
| 20260508165332 | 61 | 74 | 2.0 | 5.0 | 0.00 | 0.00 | 0.00 | 43 | 1017.8 |
| 20260508165246 | 61 | 110 | 2.0 | 6.0 | 0.00 | 0.00 | 0.00 | 48 | 1017.8 |
| 20260508165233 | 62 | 151 | 2.0 | 6.0 | 0.00 | 0.00 | 0.00 | 48 | 1017.9 |
| 20260508165210 | 61 | 156 | 2.0 | 6.0 | 0.00 | 0.00 | 0.00 | 49 | 1017.9 |
| 20260508165048 | 61 | 158 | 2.0 | 6.0 | 0.00 | 0.00 | 0.00 | 51 | 1017.8 |
| 20260508164826 | 61 | 217 | 2.0 | 6.0 | 0.00 | 0.00 | 0.00 | 49 | 1017.8 |
| 20260508164807 | 61 | 78 | 3.0 | 9.0 | 0.00 | 0.00 | 0.00 | 44 | 1017.7 |
| 20260508164802 | 61 | 74 | 3.0 | 9.0 | 0.00 | 0.00 | 0.00 | 44 | 1017.9 |
| 20260508164756 | 61 | 121 | 3.0 | 9.0 | 0.00 | 0.00 | 0.00 | 48 | 1017.9 |
| 20260508164743 | 61 | 217 | 2.0 | 6.0 | 0.00 | 0.00 | 0.00 | 46 | 1017.8 |
| 20260508164726 | 61 | 215 | 3.0 | 9.0 | 0.00 | 0.00 | 0.00 | 47 | 1017.7 |
| 20260508164227 | 61 | 163 | 2.0 | 9.0 | 0.00 | 0.00 | 0.00 | 49 | 1018.0 |
| 20260508164126 | 61 | 167 | 2.0 | 9.0 | 0.00 | 0.00 | 0.00 | 48 | 1018.0 |
| 20260508164027 | 61 | 178 | 2.0 | 9.0 | 0.00 | 0.00 | 0.00 | 47 | 1018.0 |
| 20260508163926 | 61 | 190 | 2.0 | 9.0 | 0.00 | 0.00 | 0.00 | 49 | 1018.0 |
| 20260508163825 | 61 | 112 | 2.0 | 9.0 | 0.00 | 0.00 | 0.00 | 45 | 1018.1 |
| 20260508163727 | 61 | 96 | 2.0 | 9.0 | 0.00 | 0.00 | 0.00 | 44 | 1018.1 |
| 20260508163626 | 61 | 200 | 2.0 | 6.0 | 0.00 | 0.00 | 0.00 | 44 | 1018.1 |
| 20260508163526 | 61 | 200 | 2.0 | 6.0 | 0.00 | 0.00 | 0.00 | 47 | 1018.2 |
| 20260508163425 | 61 | 211 | 1.0 | 6.0 | 0.00 | 0.00 | 0.00 | 54 | 1018.1 |
| 20260508163325 | 61 | 92 | 1.0 | 6.0 | 0.00 | 0.00 | 0.00 | 53 | 1018.1 |
| 20260508163227 | 61 | 92 | 2.0 | 6.0 | 0.00 | 0.00 | 0.00 | 52 | 1018.1 |
| 20260508163125 | 61 | 92 | 2.0 | 6.0 | 0.00 | 0.00 | 0.00 | 53 | 1018.1 |
| 20260508163052 | 60 | 259 | 2.0 | 7.0 | 0.00 | 0.00 | 0.00 | 51 | 1018.2 |
| 20260508163046 | 60 | 206 | 2.0 | 7.0 | 0.00 | 0.00 | 0.00 | 48 | 1018.1 |
| 20260508163035 | 60 | 92 | 2.0 | 6.0 | 0.00 | 0.00 | 0.00 | 48 | 1018.1 |
| 20260508163015 | 60 | 78 | 2.0 | 6.0 | 0.00 | 0.00 | 0.00 | 46 | 1018.2 |
| 20260508162900 | 59 | 18 | 2.0 | 7.0 | 0.00 | 0.00 | 0.00 | 48 | 1018.1 |
| 20260508162846 | 60 | 159 | 2.0 | 6.0 | 0.00 | 0.00 | 0.00 | 48 | 1018.1 |
| 20260508162829 | 60 | 152 | 2.0 | 7.0 | 0.00 | 0.00 | 0.00 | 52 | 1018.1 |
| 20260508162356 | 60 | 20 | 3.0 | 8.0 | 0.00 | 0.00 | 0.00 | 43 | 1018.2 |
| 20260508162347 | 59 | 20 | 2.0 | 7.0 | 0.00 | 0.00 | 0.00 | 44 | 1018.2 |
| 20260508162126 | 60 | 86 | 3.0 | 8.0 | 0.00 | 0.00 | 0.00 | 43 | 1018.2 |
| 20260508162058 | 60 | 92 | 3.0 | 8.0 | 0.00 | 0.00 | 0.00 | 42 | 1018.1 |
| 20260508162047 | 60 | 85 | 3.0 | 8.0 | 0.00 | 0.00 | 0.00 | 45 | 1018.2 |
| 20260508161825 | 60 | 121 | 2.0 | 8.0 | 0.00 | 0.00 | 0.00 | 43 | 1018.1 |
| 20260508161726 | 60 | 88 | 3.0 | 8.0 | 0.00 | 0.00 | 0.00 | 45 | 1018.1 |
| 20260508161623 | 60 | 86 | 3.0 | 8.0 | 0.00 | 0.00 | 0.00 | 45 | 1018.2 |
| 20260508161521 | 60 | 124 | 3.0 | 8.0 | 0.00 | 0.00 | 0.00 | 47 | 1018.1 |
| 20260508161423 | 60 | 142 | 3.0 | 8.0 | 0.00 | 0.00 | 0.00 | 48 | 1018.2 |
| 20260508161352 | 60 | 138 | 3.0 | 6.0 | 0.00 | 0.00 | 0.00 | 52 | 1018.4 |
| 20260508161339 | 60 | 113 | 3.0 | 8.0 | 0.00 | 0.00 | 0.00 | 46 | 1018.4 |
| 20260508161113 | 60 | 179 | 3.0 | 6.0 | 0.00 | 0.00 | 0.00 | 50 | 1018.4 |
| 20260508161012 | 60 | 136 | 3.0 | 6.0 | 0.00 | 0.00 | 0.00 | 53 | 1018.4 |
| 20260508160909 | 60 | 209 | 3.0 | 6.0 | 0.00 | 0.00 | 0.00 | 50 | 1018.4 |
| 20260508160810 | 60 | 168 | 3.0 | 8.0 | 0.00 | 0.00 | 0.00 | 47 | 1018.2 |
| 20260508160708 | 60 | 180 | 3.0 | 8.0 | 0.00 | 0.00 | 0.00 | 51 | 1018.4 |
| 20260508160607 | 60 | 183 | 3.0 | 8.0 | 0.00 | 0.00 | 0.00 | 47 | 1018.4 |
| 20260508160538 | 60 | 197 | 3.0 | 8.0 | 0.00 | 0.00 | 0.00 | 49 | 1018.5 |
| 20260508160529 | 60 | 170 | 3.0 | 8.0 | 0.00 | 0.00 | 0.00 | 50 | 1018.4 |
| 20260508160346 | 59 | 219 | 2.0 | 8.0 | 0.00 | 0.00 | 0.00 | 55 | 1018.5 |
| 20260508160331 | 59 | 209 | 2.0 | 8.0 | 0.00 | 0.00 | 0.00 | 51 | 1018.5 |
| 20260508160110 | 59 | 215 | 2.0 | 8.0 | 0.00 | 0.00 | 0.00 | 54 | 1018.5 |
| 20260508160025 | 59 | 188 | 2.0 | 7.0 | 0.00 | 0.00 | 0.00 | 53 | 1018.6 |
| 20260508160020 | 59 | 217 | 2.0 | 5.0 | 0.00 | 0.00 | 0.00 | 49 | 1018.7 |
| 20260508160009 | 59 | 98 | 2.0 | 8.0 | 0.00 | 0.00 | 0.00 | 50 | 1018.5 |
| 20260508155942 | 59 | 198 | 2.0 | 8.0 | 0.00 | 0.00 | 0.00 | 55 | 1018.6 |
| 20260508155603 | 59 | 219 | 2.0 | 5.0 | 0.00 | 0.00 | 0.00 | 55 | 1018.7 |
| 20260508155537 | 59 | 141 | 2.0 | 5.0 | 0.00 | 0.00 | 0.00 | 50 | 1018.8 |
| 20260508155526 | 59 | 234 | 2.0 | 5.0 | 0.00 | 0.00 | 0.00 | 52 | 1018.6 |
| 20260508155305 | 59 | 149 | 2.0 | 5.0 | 0.00 | 0.00 | 0.00 | 50 | 1018.7 |
| 20260508155201 | 59 | 190 | 2.0 | 5.0 | 0.00 | 0.00 | 0.00 | 50 | 1018.8 |
| 20260508155059 | 59 | 186 | 1.0 | 5.0 | 0.00 | 0.00 | 0.00 | 54 | 1018.8 |
| 20260508154958 | 59 | 202 | 1.0 | 4.0 | 0.00 | 0.00 | 0.00 | 53 | 1018.8 |
| 20260508154851 | 59 | 124 | 2.0 | 6.0 | 0.00 | 0.00 | 0.00 | 53 | 1018.8 |
| 20260508154825 | 59 | 98 | 2.0 | 6.0 | 0.00 | 0.00 | 0.00 | 54 | 1018.8 |
| 20260508154814 | 59 | 123 | 2.0 | 6.0 | 0.00 | 0.00 | 0.00 | 55 | 1018.8 |
| 20260508154553 | 59 | 98 | 2.0 | 6.0 | 0.00 | 0.00 | 0.00 | 51 | 1018.7 |
| 20260508154452 | 59 | 121 | 2.0 | 6.0 | 0.00 | 0.00 | 0.00 | 49 | 1018.8 |
| 20260508154350 | 59 | 134 | 2.0 | 6.0 | 0.00 | 0.00 | 0.00 | 49 | 1018.8 |
| 20260508154301 | 59 | 111 | 2.0 | 7.0 | 0.00 | 0.00 | 0.00 | 44 | 1018.7 |
| 20260508154251 | 59 | 111 | 2.0 | 6.0 | 0.00 | 0.00 | 0.00 | 44 | 1018.8 |
| 20260508154245 | 59 | 111 | 2.0 | 7.0 | 0.00 | 0.00 | 0.00 | 48 | 1018.8 |
| 20260508154228 | 59 | 111 | 2.0 | 7.0 | 0.00 | 0.00 | 0.00 | 46 | 1018.8 |
| 20260508153837 | 59 | 119 | 2.0 | 7.0 | 0.00 | 0.00 | 0.00 | 45 | 1018.7 |
| 20260508153736 | 59 | 118 | 2.0 | 7.0 | 0.00 | 0.00 | 0.00 | 48 | 1018.9 |
| 20260508153635 | 59 | 136 | 2.0 | 7.0 | 0.00 | 0.00 | 0.00 | 47 | 1018.8 |
| 20260508153536 | 59 | 184 | 2.0 | 7.0 | 0.00 | 0.00 | 0.00 | 49 | 1018.8 |
| 20260508153436 | 59 | 191 | 2.0 | 7.0 | 0.00 | 0.00 | 0.00 | 47 | 1018.8 |
| 20260508153338 | 58 | 166 | 2.0 | 7.0 | 0.00 | 0.00 | 0.00 | 48 | 1018.8 |
| 20260508153232 | 58 | 121 | 2.0 | 7.0 | 0.00 | 0.00 | 0.00 | 52 | 1018.8 |
| 20260508153132 | 58 | 173 | 2.0 | 6.0 | 0.00 | 0.00 | 0.00 | 51 | 1018.9 |
| 20260508153033 | 58 | 115 | 2.0 | 6.0 | 0.00 | 0.00 | 0.00 | 49 | 1018.8 |
| 20260508152929 | 58 | 116 | 2.0 | 6.0 | 0.00 | 0.00 | 0.00 | 47 | 1018.9 |
| 20260508152826 | 58 | 116 | 2.0 | 6.0 | 0.00 | 0.00 | 0.00 | 51 | 1018.9 |
| 20260508152738 | 58 | 194 | 1.0 | 4.0 | 0.00 | 0.00 | 0.00 | 51 | 1018.9 |
| 20260508152727 | 58 | 149 | 1.0 | 4.0 | 0.00 | 0.00 | 0.00 | 47 | 1018.9 |
| 20260508152719 | 58 | 194 | 1.0 | 5.0 | 0.00 | 0.00 | 0.00 | 58 | 1018.9 |
| 20260508152701 | 58 | 148 | 1.0 | 4.0 | 0.00 | 0.00 | 0.00 | 49 | 1018.9 |
| 20260508152312 | 58 | 190 | 1.0 | 5.0 | 0.00 | 0.00 | 0.00 | 56 | 1018.9 |
| 20260508152241 | 58 | 199 | 1.0 | 5.0 | 0.00 | 0.00 | 0.00 | 54 | 1018.9 |
| 20260508152232 | 58 | 196 | 1.0 | 5.0 | 0.00 | 0.00 | 0.00 | 60 | 1018.9 |
| 20260508152009 | 57 | 199 | 1.0 | 5.0 | 0.00 | 0.00 | 0.00 | 53 | 1018.9 |
| 20260508151922 | 57 | 82 | 1.0 | 5.0 | 0.00 | 0.00 | 0.00 | 52 | 1019.0 |
| 20260508151913 | 57 | 78 | 1.0 | 5.0 | 0.00 | 0.00 | 0.00 | 54 | 1018.9 |
| 20260508151903 | 57 | 82 | 1.0 | 5.0 | 0.00 | 0.00 | 0.00 | 58 | 1019.0 |
| 20260508151859 | 57 | 227 | 1.0 | 5.0 | 0.00 | 0.00 | 0.00 | 58 | 1019.0 |
| 20260508151854 | 57 | 204 | 1.0 | 5.0 | 0.00 | 0.00 | 0.00 | 58 | 1019.0 |
| 20260508151841 | 57 | 78 | 1.0 | 5.0 | 0.00 | 0.00 | 0.00 | 55 | 1019.0 |
| 20260508151819 | 57 | 78 | 1.0 | 5.0 | 0.00 | 0.00 | 0.00 | 53 | 1019.0 |
| 20260508151213 | 57 | 210 | 1.0 | 6.0 | 0.00 | 0.00 | 0.00 | 58 | 1019.0 |
| 20260508151203 | 57 | 204 | 1.0 | 5.0 | 0.00 | 0.00 | 0.00 | 57 | 1019.0 |
| 20260508151156 | 57 | 204 | 1.0 | 6.0 | 0.00 | 0.00 | 0.00 | 56 | 1019.0 |
| 20260508151137 | 57 | 212 | 1.0 | 5.0 | 0.00 | 0.00 | 0.00 | 56 | 1019.0 |
| 20260508150750 | 57 | 205 | 1.0 | 6.0 | 0.00 | 0.00 | 0.00 | 61 | 1019.0 |
| 20260508150649 | 57 | 211 | 1.0 | 6.0 | 0.00 | 0.00 | 0.00 | 56 | 1019.0 |
| 20260508150546 | 57 | 211 | 1.0 | 6.0 | 0.00 | 0.00 | 0.00 | 56 | 1019.1 |
| 20260508150449 | 57 | 201 | 1.0 | 6.0 | 0.00 | 0.00 | 0.00 | 60 | 1019.0 |
| 20260508150348 | 57 | 201 | 2.0 | 6.0 | 0.00 | 0.00 | 0.00 | 61 | 1019.1 |
| 20260508150243 | 57 | 196 | 2.0 | 6.0 | 0.00 | 0.00 | 0.00 | 58 | 1019.0 |
| 20260508150143 | 57 | 160 | 2.0 | 6.0 | 0.00 | 0.00 | 0.00 | 59 | 1019.1 |
| 20260508150044 | 57 | 179 | 2.0 | 6.0 | 0.00 | 0.00 | 0.00 | 63 | 1019.1 |
| 20260508150012 | 56 | 139 | 2.0 | 6.0 | 0.00 | 0.00 | 0.00 | 61 | 1019.1 |
| 20260508150003 | 56 | 207 | 2.0 | 6.0 | 0.00 | 0.00 | 0.00 | 56 | 1019.1 |
| 20260508145806 | 56 | 136 | 2.0 | 6.0 | 0.00 | 0.00 | 0.00 | 60 | 1019.0 |
| 20260508145756 | 56 | 136 | 2.0 | 6.0 | 0.00 | 0.00 | 0.00 | 59 | 1019.1 |
| 20260508145536 | 56 | 132 | 2.0 | 6.0 | 0.00 | 0.00 | 0.00 | 57 | 1019.1 |
| 20260508145435 | 56 | 138 | 1.0 | 6.0 | 0.00 | 0.00 | 0.00 | 61 | 1019.1 |
| 20260508145336 | 56 | 168 | 1.0 | 6.0 | 0.00 | 0.00 | 0.00 | 60 | 1019.0 |
| 20260508145223 | 56 | 68 | 1.0 | 5.0 | 0.00 | 0.00 | 0.00 | 59 | 1019.1 |
| 20260508145123 | 56 | 178 | 2.0 | 5.0 | 0.00 | 0.00 | 0.00 | 58 | 1019.0 |
| 20260508145022 | 56 | 225 | 2.0 | 7.0 | 0.00 | 0.00 | 0.00 | 55 | 1019.1 |
| 20260508144925 | 56 | 142 | 1.0 | 7.0 | 0.00 | 0.00 | 0.00 | 55 | 1019.0 |
| 20260508144851 | 56 | 183 | 1.0 | 7.0 | 0.00 | 0.00 | 0.00 | 54 | 1019.1 |
| 20260508144840 | 56 | 192 | 1.0 | 7.0 | 0.00 | 0.00 | 0.00 | 54 | 1019.0 |
| 20260508144615 | 55 | 182 | 2.0 | 7.0 | 0.00 | 0.00 | 0.00 | 56 | 1019.0 |
| 20260508144515 | 55 | 183 | 2.0 | 7.0 | 0.00 | 0.00 | 0.00 | 58 | 1019.0 |
| 20260508144416 | 55 | 183 | 2.0 | 7.0 | 0.00 | 0.00 | 0.00 | 57 | 1019.0 |
| 20260508144314 | 55 | 188 | 2.0 | 7.0 | 0.00 | 0.00 | 0.00 | 59 | 1019.0 |
| 20260508144240 | 55 | 104 | 2.0 | 7.0 | 0.00 | 0.00 | 0.00 | 60 | 1019.0 |
| 20260508144230 | 55 | 105 | 2.0 | 7.0 | 0.00 | 0.00 | 0.00 | 58 | 1019.0 |
| 20260508144008 | 55 | 184 | 1.0 | 5.0 | 0.00 | 0.00 | 0.00 | 59 | 1019.0 |
| 20260508143941 | 55 | 185 | 1.0 | 5.0 | 0.00 | 0.00 | 0.00 | 55 | 1019.0 |
| 20260508143928 | 55 | 184 | 1.0 | 5.0 | 0.00 | 0.00 | 0.00 | 55 | 1019.0 |
| 20260508143657 | 55 | 199 | 1.0 | 5.0 | 0.00 | 0.00 | 0.00 | 58 | 1019.0 |
| 20260508143557 | 55 | 199 | 1.0 | 5.0 | 0.00 | 0.00 | 0.00 | 60 | 1019.0 |
| 20260508143459 | 55 | 197 | 1.0 | 3.0 | 0.00 | 0.00 | 0.00 | 64 | 1019.1 |
| 20260508143357 | 55 | 138 | 1.0 | 3.0 | 0.00 | 0.00 | 0.00 | 57 | 1019.0 |
| 20260508143258 | 55 | 138 | 1.0 | 3.0 | 0.00 | 0.00 | 0.00 | 62 | 1019.0 |
| 20260508143153 | 55 | 69 | 1.0 | 4.0 | 0.00 | 0.00 | 0.00 | 62 | 1019.0 |
| 20260508143052 | 55 | 69 | 1.0 | 4.0 | 0.00 | 0.00 | 0.00 | 62 | 1019.0 |
| 20260508142952 | 55 | 63 | 1.0 | 4.0 | 0.00 | 0.00 | 0.00 | 63 | 1019.0 |
| 20260508142851 | 55 | 64 | 1.0 | 4.0 | 0.00 | 0.00 | 0.00 | 58 | 1019.0 |
| 20260508142751 | 54 | 183 | 2.0 | 4.0 | 0.00 | 0.00 | 0.00 | 58 | 1019.0 |
| 20260508142719 | 54 | 183 | 2.0 | 5.0 | 0.00 | 0.00 | 0.00 | 56 | 1019.1 |
| 20260508142709 | 54 | 183 | 2.0 | 5.0 | 0.00 | 0.00 | 0.00 | 56 | 1019.1 |
| 20260508142446 | 54 | 186 | 2.0 | 7.0 | 0.00 | 0.00 | 0.00 | 58 | 1019.1 |
| 20260508142345 | 54 | 186 | 2.0 | 7.0 | 0.00 | 0.00 | 0.00 | 58 | 1019.0 |
| 20260508142246 | 54 | 186 | 2.0 | 7.0 | 0.00 | 0.00 | 0.00 | 60 | 1019.1 |
| 20260508142137 | 54 | 186 | 2.0 | 7.0 | 0.00 | 0.00 | 0.00 | 62 | 1019.1 |
| 20260508142037 | 54 | 179 | 2.0 | 7.0 | 0.00 | 0.00 | 0.00 | 66 | 1019.2 |
| 20260508141935 | 55 | 175 | 2.0 | 7.0 | 0.00 | 0.00 | 0.00 | 63 | 1019.1 |
| 20260508141834 | 54 | 175 | 2.0 | 7.0 | 0.00 | 0.00 | 0.00 | 60 | 1019.1 |
| 20260508141732 | 54 | 173 | 2.0 | 7.0 | 0.00 | 0.00 | 0.00 | 57 | 1019.1 |
| 20260508141628 | 54 | 135 | 2.0 | 7.0 | 0.00 | 0.00 | 0.00 | 61 | 1019.1 |
| 20260508141527 | 54 | 112 | 2.0 | 7.0 | 0.00 | 0.00 | 0.00 | 60 | 1019.1 |
| 20260508141426 | 54 | 171 | 2.0 | 7.0 | 0.00 | 0.00 | 0.00 | 64 | 1019.2 |
| 20260508141402 | 54 | 132 | 2.0 | 8.0 | 0.00 | 0.00 | 0.00 | 60 | 1019.1 |
| 20260508141351 | 54 | 101 | 2.0 | 7.0 | 0.00 | 0.00 | 0.00 | 62 | 1019.1 |
| 20260508141151 | 53 | 130 | 2.0 | 8.0 | 0.00 | 0.00 | 0.00 | 61 | 1019.1 |
| 20260508140922 | 53 | 193 | 2.0 | 8.0 | 0.00 | 0.00 | 0.00 | 65 | 1019.1 |
| 20260508140853 | 53 | 178 | 2.0 | 8.0 | 0.00 | 0.00 | 0.00 | 62 | 1019.1 |
| 20260508140844 | 53 | 184 | 2.0 | 8.0 | 0.00 | 0.00 | 0.00 | 63 | 1019.1 |
| 20260508140650 | 53 | 218 | 1.0 | 8.0 | 0.00 | 0.00 | 0.00 | 61 | 1019.1 |
| 20260508140639 | 53 | 178 | 2.0 | 8.0 | 0.00 | 0.00 | 0.00 | 61 | 1019.1 |
| 20260508140418 | 53 | 174 | 1.0 | 8.0 | 0.00 | 0.00 | 0.00 | 61 | 1019.1 |
| 20260508140405 | 53 | 115 | 1.0 | 5.0 | 0.00 | 0.00 | 0.00 | 62 | 1019.1 |
| 20260508140400 | 53 | 203 | 1.0 | 5.0 | 0.00 | 0.00 | 0.00 | 61 | 1019.1 |
| 20260508140354 | 53 | 55 | 1.0 | 5.0 | 0.00 | 0.00 | 0.00 | 63 | 1019.2 |
| 20260508140341 | 53 | 109 | 1.0 | 8.0 | 0.00 | 0.00 | 0.00 | 62 | 1019.2 |
| 20260508140157 | 53 | 203 | 1.0 | 5.0 | 0.00 | 0.00 | 0.00 | 61 | 1019.1 |
| 20260508135814 | 53 | 129 | 1.0 | 5.0 | 0.00 | 0.00 | 0.00 | 64 | 1019.2 |
| 20260508135714 | 53 | 124 | 2.0 | 6.0 | 0.00 | 0.00 | 0.00 | 60 | 1019.1 |
| 20260508135611 | 53 | 124 | 2.0 | 6.0 | 0.00 | 0.00 | 0.00 | 60 | 1019.1 |
| 20260508135509 | 53 | 117 | 2.0 | 6.0 | 0.00 | 0.00 | 0.00 | 61 | 1019.1 |
| 20260508135408 | 53 | 117 | 2.0 | 6.0 | 0.00 | 0.00 | 0.00 | 60 | 1019.2 |
| 20260508135308 | 52 | 119 | 2.0 | 6.0 | 0.00 | 0.00 | 0.00 | 60 | 1019.2 |
| 20260508135208 | 52 | 119 | 2.0 | 6.0 | 0.00 | 0.00 | 0.00 | 58 | 1019.2 |
| 20260508135105 | 52 | 180 | 2.0 | 6.0 | 0.00 | 0.00 | 0.00 | 58 | 1019.2 |
| 20260508135004 | 52 | 181 | 3.0 | 8.0 | 0.00 | 0.00 | 0.00 | 59 | 1019.1 |
| 20260508134904 | 52 | 174 | 3.0 | 8.0 | 0.00 | 0.00 | 0.00 | 59 | 1019.2 |
| 20260508134801 | 52 | 171 | 3.0 | 8.0 | 0.00 | 0.00 | 0.00 | 59 | 1019.2 |
| 20260508134701 | 52 | 185 | 2.0 | 8.0 | 0.00 | 0.00 | 0.00 | 60 | 1019.2 |
| 20260508134633 | 52 | 93 | 2.0 | 8.0 | 0.00 | 0.00 | 0.00 | 60 | 1019.1 |
| 20260508134622 | 52 | 176 | 2.0 | 8.0 | 0.00 | 0.00 | 0.00 | 60 | 1019.1 |
| 20260508134452 | 52 | 117 | 2.0 | 8.0 | 0.00 | 0.00 | 0.00 | 60 | 1019.1 |
| 20260508134448 | 52 | 173 | 2.0 | 8.0 | 0.00 | 0.00 | 0.00 | 59 | 1019.1 |
| 20260508134432 | 52 | 121 | 2.0 | 8.0 | 0.00 | 0.00 | 0.00 | 60 | 1019.1 |
| 20260508134101 | 52 | 64 | 2.0 | 8.0 | 0.00 | 0.00 | 0.00 | 59 | 1019.1 |
| 20260508134001 | 52 | 121 | 2.0 | 4.0 | 0.00 | 0.00 | 0.00 | 60 | 1019.1 |
| 20260508133903 | 52 | 153 | 2.0 | 6.0 | 0.00 | 0.00 | 0.00 | 60 | 1019.1 |
| 20260508133802 | 52 | 163 | 2.0 | 7.0 | 0.00 | 0.00 | 0.00 | 60 | 1019.1 |
| 20260508133659 | 52 | 164 | 2.0 | 7.0 | 0.00 | 0.00 | 0.00 | 60 | 1019.1 |
| 20260508133559 | 52 | 129 | 2.0 | 7.0 | 0.00 | 0.00 | 0.00 | 60 | 1019.1 |
| 20260508133500 | 52 | 138 | 2.0 | 7.0 | 0.00 | 0.00 | 0.00 | 62 | 1019.1 |
| 20260508133400 | 53 | 138 | 2.0 | 7.0 | 0.00 | 0.00 | 0.00 | 62 | 1019.1 |
| 20260508133300 | 53 | 148 | 2.0 | 7.0 | 0.00 | 0.00 | 0.00 | 61 | 1019.1 |
| 20260508133154 | 53 | 148 | 2.0 | 7.0 | 0.00 | 0.00 | 0.00 | 60 | 1019.1 |
| 20260508133054 | 53 | 86 | 2.0 | 7.0 | 0.00 | 0.00 | 0.00 | 61 | 1019.1 |
| 20260508132954 | 53 | 84 | 2.0 | 7.0 | 0.00 | 0.00 | 0.00 | 59 | 1019.1 |
| 20260508132854 | 52 | 88 | 1.0 | 7.0 | 0.00 | 0.00 | 0.00 | 61 | 1019.1 |
| 20260508132754 | 52 | 87 | 1.0 | 6.0 | 0.00 | 0.00 | 0.00 | 60 | 1019.1 |
| 20260508132650 | 52 | 87 | 2.0 | 6.0 | 0.00 | 0.00 | 0.00 | 61 | 1019.1 |
| 20260508132602 | 52 | 87 | 1.0 | 6.0 | 0.00 | 0.00 | 0.00 | 60 | 1019.1 |
| 20260508132449 | 52 | 88 | 1.0 | 6.0 | 0.00 | 0.00 | 0.00 | 60 | 1019.0 |
| 20260508132349 | 52 | 88 | 2.0 | 6.0 | 0.00 | 0.00 | 0.00 | 60 | 1019.1 |
| 20260508132248 | 52 | 95 | 2.0 | 6.0 | 0.00 | 0.00 | 0.00 | 59 | 1019.1 |
| 20260508132141 | 52 | 105 | 2.0 | 6.0 | 0.00 | 0.00 | 0.00 | 59 | 1019.0 |
| 20260508132041 | 52 | 104 | 2.0 | 6.0 | 0.00 | 0.00 | 0.00 | 60 | 1019.0 |
| 20260508131940 | 52 | 150 | 2.0 | 6.0 | 0.00 | 0.00 | 0.00 | 59 | 1019.0 |
| 20260508131840 | 52 | 155 | 2.0 | 6.0 | 0.00 | 0.00 | 0.00 | 58 | 1019.0 |
| 20260508131741 | 52 | 155 | 2.0 | 8.0 | 0.00 | 0.00 | 0.00 | 58 | 1019.0 |
| 20260508131639 | 52 | 81 | 2.0 | 8.0 | 0.00 | 0.00 | 0.00 | 58 | 1019.0 |
| 20260508131539 | 52 | 80 | 2.0 | 8.0 | 0.00 | 0.00 | 0.00 | 58 | 1019.0 |
| 20260508131437 | 52 | 80 | 2.0 | 8.0 | 0.00 | 0.00 | 0.00 | 59 | 1019.0 |
| 20260508131337 | 52 | 78 | 2.0 | 8.0 | 0.00 | 0.00 | 0.00 | 58 | 1019.0 |
| 20260508131237 | 52 | 108 | 2.0 | 8.0 | 0.00 | 0.00 | 0.00 | 58 | 1019.0 |
| 20260508131138 | 52 | 103 | 2.0 | 8.0 | 0.00 | 0.00 | 0.00 | 57 | 1019.0 |
| 20260508131122 | 52 | 97 | 2.0 | 8.0 | 0.00 | 0.00 | 0.00 | 59 | 1019.0 |
| 20260508131116 | 52 | 77 | 1.0 | 6.0 | 0.00 | 0.00 | 0.00 | 59 | 1019.0 |
| 20260508131110 | 52 | 104 | 1.0 | 6.0 | 0.00 | 0.00 | 0.00 | 58 | 1019.0 |
| 20260508131055 | 52 | 102 | 1.0 | 8.0 | 0.00 | 0.00 | 0.00 | 57 | 1019.0 |
| 20260508131037 | 52 | 117 | 2.0 | 8.0 | 0.00 | 0.00 | 0.00 | 59 | 1019.0 |
| 20260508130535 | 52 | 105 | 2.0 | 6.0 | 0.00 | 0.00 | 0.00 | 57 | 1019.0 |
| 20260508130434 | 52 | 105 | 2.0 | 7.0 | 0.00 | 0.00 | 0.00 | 57 | 1019.0 |
| 20260508130332 | 52 | 105 | 2.0 | 7.0 | 0.00 | 0.00 | 0.00 | 56 | 1019.0 |
| 20260508130233 | 52 | 101 | 2.0 | 7.0 | 0.00 | 0.00 | 0.00 | 57 | 1019.0 |
| 20260508130133 | 52 | 101 | 2.0 | 7.0 | 0.00 | 0.00 | 0.00 | 58 | 1018.9 |
| 20260508130032 | 52 | 101 | 2.0 | 7.0 | 0.00 | 0.00 | 0.00 | 57 | 1018.9 |
| 20260508125933 | 52 | 115 | 2.0 | 7.0 | 0.00 | 0.00 | 0.00 | 57 | 1018.9 |
| 20260508125831 | 52 | 103 | 3.0 | 7.0 | 0.00 | 0.00 | 0.00 | 58 | 1018.9 |
| 20260508125729 | 52 | 96 | 3.0 | 8.0 | 0.00 | 0.00 | 0.00 | 57 | 1018.9 |
| 20260508125630 | 52 | 101 | 3.0 | 9.0 | 0.00 | 0.00 | 0.00 | 56 | 1018.8 |
| 20260508125530 | 52 | 84 | 3.0 | 9.0 | 0.00 | 0.00 | 0.00 | 55 | 1018.8 |
| 20260508125503 | 52 | 115 | 3.0 | 9.0 | 0.00 | 0.00 | 0.00 | 58 | 1018.7 |
| 20260508125452 | 52 | 71 | 3.0 | 9.0 | 0.00 | 0.00 | 0.00 | 58 | 1018.7 |
| 20260508125227 | 52 | 111 | 3.0 | 9.0 | 0.00 | 0.00 | 0.00 | 56 | 1018.7 |
| 20260508125127 | 52 | 132 | 3.0 | 9.0 | 0.00 | 0.00 | 0.00 | 61 | 1018.7 |
| 20260508125029 | 52 | 52 | 3.0 | 9.0 | 0.00 | 0.00 | 0.00 | 56 | 1018.7 |
| 20260508124926 | 52 | 137 | 3.0 | 9.0 | 0.00 | 0.00 | 0.00 | 56 | 1018.7 |
| 20260508124828 | 52 | 110 | 3.0 | 9.0 | 0.00 | 0.00 | 0.00 | 60 | 1018.7 |
| 20260508124720 | 52 | 156 | 3.0 | 9.0 | 0.00 | 0.00 | 0.00 | 60 | 1018.7 |
| 20260508124620 | 52 | 88 | 3.0 | 9.0 | 0.00 | 0.00 | 0.00 | 57 | 1018.7 |
| 20260508124521 | 52 | 53 | 3.0 | 9.0 | 0.00 | 0.00 | 0.00 | 58 | 1018.6 |
| 20260508124421 | 52 | 120 | 3.0 | 9.0 | 0.00 | 0.00 | 0.00 | 58 | 1018.6 |
| 20260508124321 | 52 | 125 | 3.0 | 9.0 | 0.00 | 0.00 | 0.00 | 58 | 1018.7 |
| 20260508124216 | 51 | 74 | 3.0 | 9.0 | 0.00 | 0.00 | 0.00 | 57 | 1018.6 |
| 20260508124115 | 51 | 70 | 3.0 | 9.0 | 0.00 | 0.00 | 0.00 | 56 | 1018.6 |
| 20260508124014 | 51 | 54 | 3.0 | 9.0 | 0.00 | 0.00 | 0.00 | 56 | 1018.7 |
| 20260508123914 | 51 | 79 | 3.0 | 9.0 | 0.00 | 0.00 | 0.00 | 58 | 1018.6 |
| 20260508123848 | 51 | 61 | 3.0 | 9.0 | 0.00 | 0.00 | 0.00 | 58 | 1018.6 |
| 20260508123837 | 51 | 63 | 3.0 | 9.0 | 0.00 | 0.00 | 0.00 | 57 | 1018.6 |
| 20260508123611 | 51 | 113 | 3.0 | 9.0 | 0.00 | 0.00 | 0.00 | 57 | 1018.6 |
| 20260508123543 | 51 | 61 | 3.0 | 9.0 | 0.00 | 0.00 | 0.00 | 57 | 1018.6 |
| 20260508123531 | 51 | 130 | 3.0 | 9.0 | 0.00 | 0.00 | 0.00 | 57 | 1018.6 |
| 20260508123312 | 51 | 86 | 3.0 | 9.0 | 0.00 | 0.00 | 0.00 | 58 | 1018.6 |
| 20260508123211 | 51 | 93 | 3.0 | 9.0 | 0.00 | 0.00 | 0.00 | 58 | 1018.6 |
| 20260508123112 | 51 | 126 | 3.0 | 9.0 | 0.00 | 0.00 | 0.00 | 58 | 1018.6 |
| 20260508123009 | 51 | 112 | 3.0 | 9.0 | 0.00 | 0.00 | 0.00 | 57 | 1018.6 |
| 20260508122908 | 51 | 56 | 3.0 | 9.0 | 0.00 | 0.00 | 0.00 | 58 | 1018.6 |
| 20260508122808 | 51 | 101 | 3.0 | 9.0 | 0.00 | 0.00 | 0.00 | 57 | 1018.6 |
| 20260508122737 | 51 | 98 | 3.0 | 8.0 | 0.00 | 0.00 | 0.00 | 58 | 1018.6 |
| 20260508122605 | 51 | 80 | 3.0 | 8.0 | 0.00 | 0.00 | 0.00 | 58 | 1018.6 |
| 20260508122505 | 51 | 111 | 3.0 | 8.0 | 0.00 | 0.00 | 0.00 | 59 | 1018.6 |
| 20260508122405 | 51 | 103 | 2.0 | 8.0 | 0.00 | 0.00 | 0.00 | 57 | 1018.6 |
| 20260508122307 | 51 | 61 | 2.0 | 8.0 | 0.00 | 0.00 | 0.00 | 57 | 1018.6 |
| 20260508122206 | 51 | 40 | 2.0 | 7.0 | 0.00 | 0.00 | 0.00 | 56 | 1018.5 |
| 20260508122139 | 52 | 82 | 3.0 | 7.0 | 0.00 | 0.00 | 0.00 | 58 | 1018.6 |
| 20260508122127 | 52 | 71 | 2.0 | 7.0 | 0.00 | 0.00 | 0.00 | 58 | 1018.6 |
| 20260508121901 | 52 | 106 | 3.0 | 7.0 | 0.00 | 0.00 | 0.00 | 58 | 1018.7 |
| 20260508121832 | 52 | 56 | 3.0 | 7.0 | 0.00 | 0.00 | 0.00 | 58 | 1018.6 |
| 20260508121801 | 52 | 56 | 3.0 | 7.0 | 0.00 | 0.00 | 0.00 | 58 | 1018.6 |
| 20260508121736 | 51 | 57 | 3.0 | 7.0 | 0.00 | 0.00 | 0.00 | 57 | 1018.6 |
| 20260508121727 | 52 | 60 | 3.0 | 7.0 | 0.00 | 0.00 | 0.00 | 57 | 1018.6 |
| 20260508121502 | 52 | 59 | 3.0 | 7.0 | 0.00 | 0.00 | 0.00 | 57 | 1018.6 |
| 20260508121403 | 52 | 59 | 3.0 | 7.0 | 0.00 | 0.00 | 0.00 | 57 | 1018.6 |
| 20260508121300 | 51 | 96 | 3.0 | 7.0 | 0.00 | 0.00 | 0.00 | 57 | 1018.6 |
| 20260508121233 | 51 | 71 | 2.0 | 6.0 | 0.00 | 0.00 | 0.00 | 56 | 1018.5 |
| 20260508121223 | 51 | 76 | 3.0 | 7.0 | 0.00 | 0.00 | 0.00 | 56 | 1018.5 |
| 20260508120959 | 51 | 69 | 2.0 | 6.0 | 0.00 | 0.00 | 0.00 | 56 | 1018.5 |
| 20260508120900 | 51 | 96 | 2.0 | 6.0 | 0.00 | 0.00 | 0.00 | 55 | 1018.5 |
| 20260508120759 | 51 | 42 | 2.0 | 5.0 | 0.00 | 0.00 | 0.00 | 56 | 1018.5 |
| 20260508120659 | 51 | 67 | 2.0 | 6.0 | 0.00 | 0.00 | 0.00 | 56 | 1018.5 |
| 20260508120559 | 51 | 68 | 3.0 | 7.0 | 0.00 | 0.00 | 0.00 | 57 | 1018.5 |
| 20260508120500 | 51 | 74 | 2.0 | 7.0 | 0.00 | 0.00 | 0.00 | 56 | 1018.5 |
| 20260508120400 | 51 | 74 | 2.0 | 7.0 | 0.00 | 0.00 | 0.00 | 54 | 1018.5 |
| 20260508120254 | 51 | 74 | 2.0 | 7.0 | 0.00 | 0.00 | 0.00 | 56 | 1018.5 |
| 20260508120153 | 50 | 63 | 2.0 | 7.0 | 0.00 | 0.00 | 0.00 | 59 | 1018.5 |
| 20260508120056 | 50 | 61 | 2.0 | 7.0 | 0.00 | 0.00 | 0.00 | 58 | 1018.5 |
| 20260508120031 | 50 | 58 | 3.0 | 7.0 | 0.00 | 0.00 | 0.00 | 56 | 1018.4 |
| 20260508120020 | 50 | 61 | 2.0 | 7.0 | 0.00 | 0.00 | 0.00 | 55 | 1018.5 |
| 20260508115749 | 50 | 54 | 3.0 | 7.0 | 0.00 | 0.00 | 0.00 | 56 | 1018.5 |
| 20260508115649 | 50 | 77 | 2.0 | 7.0 | 0.00 | 0.00 | 0.00 | 55 | 1018.4 |
| 20260508115548 | 50 | 47 | 3.0 | 7.0 | 0.00 | 0.00 | 0.00 | 54 | 1018.4 |
| 20260508115449 | 50 | 47 | 3.0 | 7.0 | 0.00 | 0.00 | 0.00 | 55 | 1018.4 |
| 20260508115419 | 50 | 45 | 3.0 | 7.0 | 0.00 | 0.00 | 0.00 | 55 | 1018.4 |
| 20260508115409 | 50 | 45 | 3.0 | 7.0 | 0.00 | 0.00 | 0.00 | 55 | 1018.4 |
| 20260508115149 | 50 | 45 | 3.0 | 7.0 | 0.00 | 0.00 | 0.00 | 54 | 1018.4 |
| 20260508115050 | 49 | 49 | 3.0 | 7.0 | 0.00 | 0.00 | 0.00 | 54 | 1018.2 |
| 20260508114950 | 49 | 49 | 3.0 | 7.0 | 0.00 | 0.00 | 0.00 | 54 | 1018.2 |
| 20260508114849 | 49 | 54 | 3.0 | 7.0 | 0.00 | 0.00 | 0.00 | 54 | 1018.4 |
| 20260508114749 | 49 | 63 | 3.0 | 6.0 | 0.00 | 0.00 | 0.00 | 54 | 1018.4 |
| 20260508114649 | 49 | 68 | 3.0 | 6.0 | 0.00 | 0.00 | 0.00 | 54 | 1018.2 |
| 20260508114549 | 49 | 56 | 3.0 | 8.0 | 0.00 | 0.00 | 0.00 | 55 | 1018.4 |
| 20260508114447 | 49 | 47 | 4.0 | 8.0 | 0.00 | 0.00 | 0.00 | 55 | 1018.2 |
| 20260508114349 | 49 | 57 | 4.0 | 8.0 | 0.00 | 0.00 | 0.00 | 55 | 1018.5 |
| 20260508114323 | 49 | 82 | 4.0 | 8.0 | 0.00 | 0.00 | 0.00 | 54 | 1018.4 |
| 20260508114312 | 49 | 61 | 4.0 | 8.0 | 0.00 | 0.00 | 0.00 | 55 | 1018.4 |
| 20260508114117 | 49 | 56 | 4.0 | 8.0 | 0.00 | 0.00 | 0.00 | 55 | 1018.4 |
| 20260508114106 | 49 | 57 | 4.0 | 8.0 | 0.00 | 0.00 | 0.00 | 54 | 1018.4 |
| 20260508113844 | 49 | 55 | 4.0 | 8.0 | 0.00 | 0.00 | 0.00 | 53 | 1018.2 |
| 20260508113743 | 49 | 61 | 4.0 | 8.0 | 0.00 | 0.00 | 0.00 | 54 | 1018.4 |
| 20260508113643 | 49 | 61 | 4.0 | 8.0 | 0.00 | 0.00 | 0.00 | 54 | 1018.2 |
| 20260508113543 | 49 | 51 | 4.0 | 8.0 | 0.00 | 0.00 | 0.00 | 55 | 1018.2 |
| 20260508113444 | 49 | 69 | 3.0 | 8.0 | 0.00 | 0.00 | 0.00 | 54 | 1018.2 |
| 20260508113338 | 49 | 67 | 3.0 | 7.0 | 0.00 | 0.00 | 0.00 | 53 | 1018.1 |
| 20260508113236 | 49 | 61 | 3.0 | 7.0 | 0.00 | 0.00 | 0.00 | 53 | 1018.2 |
| 20260508113138 | 49 | 55 | 3.0 | 7.0 | 0.00 | 0.00 | 0.00 | 53 | 1018.1 |
| 20260508113037 | 49 | 61 | 4.0 | 7.0 | 0.00 | 0.00 | 0.00 | 53 | 1018.2 |
| 20260508112938 | 49 | 53 | 3.0 | 7.0 | 0.00 | 0.00 | 0.00 | 54 | 1018.1 |
| 20260508112837 | 49 | 51 | 3.0 | 7.0 | 0.00 | 0.00 | 0.00 | 55 | 1018.2 |
| 20260508112737 | 49 | 68 | 3.0 | 7.0 | 0.00 | 0.00 | 0.00 | 54 | 1018.2 |
| 20260508112638 | 49 | 70 | 4.0 | 7.0 | 0.00 | 0.00 | 0.00 | 54 | 1018.1 |
| 20260508112537 | 49 | 82 | 4.0 | 8.0 | 0.00 | 0.00 | 0.00 | 55 | 1018.1 |
| 20260508112438 | 49 | 63 | 4.0 | 8.0 | 0.00 | 0.00 | 0.00 | 54 | 1018.1 |
| 20260508112337 | 49 | 74 | 4.0 | 8.0 | 0.00 | 0.00 | 0.00 | 54 | 1018.1 |
| 20260508112233 | 49 | 76 | 4.0 | 8.0 | 0.00 | 0.00 | 0.00 | 54 | 1018.1 |
| 20260508112133 | 49 | 75 | 4.0 | 8.0 | 0.00 | 0.00 | 0.00 | 54 | 1018.0 |
| 20260508112034 | 49 | 69 | 4.0 | 8.0 | 0.00 | 0.00 | 0.00 | 54 | 1018.0 |
| 20260508112004 | 48 | 60 | 4.0 | 8.0 | 0.00 | 0.00 | 0.00 | 54 | 1018.0 |
| 20260508111953 | 48 | 60 | 4.0 | 8.0 | 0.00 | 0.00 | 0.00 | 54 | 1018.0 |
| 20260508111734 | 48 | 49 | 4.0 | 8.0 | 0.00 | 0.00 | 0.00 | 54 | 1017.9 |
| 20260508111630 | 48 | 72 | 4.0 | 8.0 | 0.00 | 0.00 | 0.00 | 54 | 1017.9 |
| 20260508111527 | 48 | 63 | 4.0 | 8.0 | 0.00 | 0.00 | 0.00 | 55 | 1017.8 |
| 20260508111427 | 48 | 65 | 4.0 | 8.0 | 0.00 | 0.00 | 0.00 | 54 | 1017.8 |
| 20260508111326 | 48 | 76 | 4.0 | 8.0 | 0.00 | 0.00 | 0.00 | 55 | 1017.9 |
| 20260508111254 | 48 | 55 | 4.0 | 8.0 | 0.00 | 0.00 | 0.00 | 55 | 1017.7 |
| 20260508111244 | 48 | 46 | 4.0 | 8.0 | 0.00 | 0.00 | 0.00 | 55 | 1017.7 |
| 20260508111020 | 47 | 63 | 4.0 | 9.0 | 0.00 | 0.00 | 0.00 | 56 | 1017.7 |
| 20260508110920 | 48 | 68 | 4.0 | 9.0 | 0.00 | 0.00 | 0.00 | 56 | 1017.8 |
| 20260508110852 | 48 | 72 | 4.0 | 9.0 | 0.00 | 0.00 | 0.00 | 55 | 1017.7 |
| 20260508110842 | 48 | 69 | 4.0 | 9.0 | 0.00 | 0.00 | 0.00 | 56 | 1017.7 |
| 20260508110622 | 47 | 65 | 4.0 | 9.0 | 0.00 | 0.00 | 0.00 | 56 | 1017.7 |
| 20260508110522 | 47 | 65 | 4.0 | 9.0 | 0.00 | 0.00 | 0.00 | 56 | 1017.6 |
| 20260508110421 | 47 | 62 | 4.0 | 9.0 | 0.00 | 0.00 | 0.00 | 56 | 1017.6 |
| 20260508110358 | 47 | 72 | 4.0 | 9.0 | 0.00 | 0.00 | 0.00 | 56 | 1017.6 |
| 20260508110343 | 47 | 65 | 4.0 | 9.0 | 0.00 | 0.00 | 0.00 | 56 | 1017.6 |
| 20260508110121 | 47 | 63 | 4.0 | 10.0 | 0.00 | 0.00 | 0.00 | 57 | 1017.6 |
| 20260508110021 | 47 | 54 | 4.0 | 10.0 | 0.00 | 0.00 | 0.00 | 57 | 1017.6 |
| 20260508105921 | 48 | 56 | 4.0 | 10.0 | 0.00 | 0.00 | 0.00 | 56 | 1017.6 |
| 20260508105822 | 48 | 57 | 4.0 | 10.0 | 0.00 | 0.00 | 0.00 | 55 | 1017.7 |
| 20260508105740 | 48 | 75 | 5.0 | 10.0 | 0.00 | 0.00 | 0.00 | 57 | 1017.6 |
| 20260508105734 | 48 | 67 | 5.0 | 10.0 | 0.00 | 0.00 | 0.00 | 55 | 1017.6 |
| 20260508105724 | 48 | 51 | 4.0 | 10.0 | 0.00 | 0.00 | 0.00 | 56 | 1017.6 |
| 20260508105703 | 48 | 76 | 4.0 | 10.0 | 0.00 | 0.00 | 0.00 | 56 | 1017.6 |
| 20260508105322 | 48 | 57 | 5.0 | 10.0 | 0.00 | 0.00 | 0.00 | 55 | 1017.6 |
| 20260508105221 | 48 | 59 | 4.0 | 10.0 | 0.00 | 0.00 | 0.00 | 55 | 1017.5 |
| 20260508105122 | 48 | 63 | 4.0 | 8.0 | 0.00 | 0.00 | 0.00 | 55 | 1017.5 |
| 20260508105021 | 48 | 78 | 4.0 | 8.0 | 0.00 | 0.00 | 0.00 | 56 | 1017.5 |
| 20260508104920 | 47 | 65 | 4.0 | 8.0 | 0.00 | 0.00 | 0.00 | 56 | 1017.5 |
| 20260508104822 | 48 | 69 | 4.0 | 8.0 | 0.00 | 0.00 | 0.00 | 56 | 1017.6 |
| 20260508104721 | 48 | 61 | 4.0 | 8.0 | 0.00 | 0.00 | 0.00 | 56 | 1017.6 |
| 20260508104620 | 48 | 76 | 4.0 | 8.0 | 0.00 | 0.00 | 0.00 | 56 | 1017.5 |
| 20260508104551 | 48 | 62 | 4.0 | 8.0 | 0.00 | 0.00 | 0.00 | 56 | 1017.5 |
| 20260508104541 | 48 | 67 | 4.0 | 8.0 | 0.00 | 0.00 | 0.00 | 56 | 1017.5 |
| 20260508104322 | 48 | 83 | 4.0 | 8.0 | 0.00 | 0.00 | 0.00 | 57 | 1017.5 |
| 20260508104256 | 48 | 57 | 4.0 | 8.0 | 0.00 | 0.00 | 0.00 | 56 | 1017.4 |
| 20260508104245 | 48 | 77 | 4.0 | 8.0 | 0.00 | 0.00 | 0.00 | 56 | 1017.5 |
| 20260508104021 | 48 | 76 | 4.0 | 9.0 | 0.00 | 0.00 | 0.00 | 56 | 1017.5 |
| 20260508103922 | 48 | 51 | 4.0 | 9.0 | 0.00 | 0.00 | 0.00 | 56 | 1017.4 |
| 20260508103821 | 48 | 58 | 4.0 | 9.0 | 0.00 | 0.00 | 0.00 | 56 | 1017.4 |
| 20260508103721 | 48 | 67 | 4.0 | 9.0 | 0.00 | 0.00 | 0.00 | 56 | 1017.4 |
| 20260508103620 | 48 | 67 | 4.0 | 9.0 | 0.00 | 0.00 | 0.00 | 56 | 1017.5 |
| 20260508103521 | 47 | 74 | 4.0 | 9.0 | 0.00 | 0.00 | 0.00 | 57 | 1017.4 |
| 20260508103422 | 47 | 45 | 4.0 | 9.0 | 0.00 | 0.00 | 0.00 | 57 | 1017.5 |
| 20260508103321 | 47 | 59 | 4.0 | 9.0 | 0.00 | 0.00 | 0.00 | 56 | 1017.5 |
| 20260508103222 | 47 | 69 | 4.0 | 9.0 | 0.00 | 0.00 | 0.00 | 56 | 1017.4 |
| 20260508103148 | 47 | 63 | 4.0 | 9.0 | 0.00 | 0.00 | 0.00 | 57 | 1017.5 |
| 20260508103137 | 47 | 62 | 4.0 | 9.0 | 0.00 | 0.00 | 0.00 | 57 | 1017.4 |
| 20260508102918 | 48 | 78 | 4.0 | 9.0 | 0.00 | 0.00 | 0.00 | 56 | 1017.4 |
| 20260508102817 | 48 | 67 | 5.0 | 9.0 | 0.00 | 0.00 | 0.00 | 56 | 1017.4 |
| 20260508102717 | 48 | 83 | 4.0 | 9.0 | 0.00 | 0.00 | 0.00 | 57 | 1017.3 |
| 20260508102617 | 48 | 70 | 4.0 | 9.0 | 0.00 | 0.00 | 0.00 | 57 | 1017.4 |
| 20260508102517 | 48 | 47 | 5.0 | 9.0 | 0.00 | 0.00 | 0.00 | 56 | 1017.4 |
| 20260508102418 | 48 | 51 | 5.0 | 11.0 | 0.00 | 0.00 | 0.00 | 56 | 1017.3 |
| 20260508102318 | 48 | 66 | 5.0 | 11.0 | 0.00 | 0.00 | 0.00 | 56 | 1017.3 |
| 20260508102218 | 48 | 61 | 5.0 | 11.0 | 0.00 | 0.00 | 0.00 | 56 | 1017.3 |
| 20260508102119 | 48 | 46 | 5.0 | 11.0 | 0.00 | 0.00 | 0.00 | 56 | 1017.3 |
| 20260508102017 | 48 | 68 | 5.0 | 11.0 | 0.00 | 0.00 | 0.00 | 56 | 1017.4 |
| 20260508101919 | 48 | 59 | 5.0 | 11.0 | 0.00 | 0.00 | 0.00 | 57 | 1017.3 |
| 20260508101817 | 48 | 69 | 5.0 | 11.0 | 0.00 | 0.00 | 0.00 | 57 | 1017.3 |
| 20260508101752 | 48 | 51 | 6.0 | 11.0 | 0.00 | 0.00 | 0.00 | 56 | 1017.3 |
| 20260508101741 | 48 | 57 | 5.0 | 11.0 | 0.00 | 0.00 | 0.00 | 56 | 1017.4 |
| 20260508101516 | 48 | 71 | 5.0 | 11.0 | 0.00 | 0.00 | 0.00 | 56 | 1017.3 |
| 20260508101459 | 48 | 65 | 5.0 | 9.0 | 0.00 | 0.00 | 0.00 | 56 | 1017.3 |
| 20260508101454 | 48 | 69 | 5.0 | 9.0 | 0.00 | 0.00 | 0.00 | 56 | 1017.3 |
| 20260508101449 | 48 | 63 | 5.0 | 9.0 | 0.00 | 0.00 | 0.00 | 56 | 1017.3 |
| 20260508101439 | 48 | 69 | 5.0 | 9.0 | 0.00 | 0.00 | 0.00 | 56 | 1017.3 |
| 20260508101257 | 48 | 63 | 5.0 | 9.0 | 0.00 | 0.00 | 0.00 | 56 | 1017.3 |
| 20260508100917 | 48 | 67 | 5.0 | 9.0 | 0.00 | 0.00 | 0.00 | 56 | 1017.3 |
| 20260508100816 | 48 | 71 | 5.0 | 9.0 | 0.00 | 0.00 | 0.00 | 56 | 1017.4 |
| 20260508100717 | 48 | 62 | 4.0 | 9.0 | 0.00 | 0.00 | 0.00 | 56 | 1017.3 |
| 20260508100618 | 48 | 78 | 4.0 | 9.0 | 0.00 | 0.00 | 0.00 | 56 | 1017.3 |
| 20260508100513 | 48 | 53 | 4.0 | 11.0 | 0.00 | 0.00 | 0.00 | 56 | 1017.2 |
| 20260508100412 | 48 | 68 | 4.0 | 11.0 | 0.00 | 0.00 | 0.00 | 56 | 1017.2 |
| 20260508100314 | 48 | 51 | 4.0 | 11.0 | 0.00 | 0.00 | 0.00 | 56 | 1017.3 |
| 20260508100213 | 48 | 37 | 4.0 | 11.0 | 0.00 | 0.00 | 0.00 | 56 | 1017.3 |
| 20260508100112 | 48 | 67 | 4.0 | 11.0 | 0.00 | 0.00 | 0.00 | 56 | 1017.2 |
| 20260508100014 | 48 | 58 | 4.0 | 11.0 | 0.00 | 0.00 | 0.00 | 56 | 1017.2 |
| 20260508095913 | 48 | 63 | 4.0 | 11.0 | 0.00 | 0.00 | 0.00 | 56 | 1017.2 |
| 20260508095813 | 48 | 80 | 4.0 | 11.0 | 0.00 | 0.00 | 0.00 | 56 | 1017.2 |
| 20260508095708 | 48 | 54 | 4.0 | 11.0 | 0.00 | 0.00 | 0.00 | 56 | 1017.2 |
| 20260508095641 | 48 | 46 | 4.0 | 10.0 | 0.00 | 0.00 | 0.00 | 57 | 1017.3 |
| 20260508095630 | 48 | 69 | 4.0 | 11.0 | 0.00 | 0.00 | 0.00 | 56 | 1017.2 |
| 20260508095407 | 48 | 77 | 5.0 | 10.0 | 0.00 | 0.00 | 0.00 | 56 | 1017.3 |
| 20260508095307 | 48 | 48 | 5.0 | 10.0 | 0.00 | 0.00 | 0.00 | 56 | 1017.2 |
| 20260508095225 | 48 | 59 | 5.0 | 10.0 | 0.00 | 0.00 | 0.00 | 56 | 1017.2 |
| 20260508095213 | 48 | 61 | 5.0 | 10.0 | 0.00 | 0.00 | 0.00 | 56 | 1017.2 |
| 20260508095148 | 48 | 11 | 5.0 | 10.0 | 0.00 | 0.00 | 0.00 | 57 | 1017.1 |
| 20260508095026 | 48 | 69 | 5.0 | 10.0 | 0.00 | 0.00 | 0.00 | 56 | 1017.2 |
| 20260508094754 | 48 | 66 | 5.0 | 10.0 | 0.00 | 0.00 | 0.00 | 56 | 1017.3 |
| 20260508094656 | 48 | 88 | 5.0 | 10.0 | 0.00 | 0.00 | 0.00 | 56 | 1017.2 |
| 20260508094632 | 48 | 57 | 5.0 | 10.0 | 0.00 | 0.00 | 0.00 | 56 | 1017.1 |
| 20260508094619 | 48 | 59 | 5.0 | 10.0 | 0.00 | 0.00 | 0.00 | 56 | 1017.2 |
| 20260508094356 | 48 | 56 | 5.0 | 10.0 | 0.00 | 0.00 | 0.00 | 57 | 1017.1 |
| 20260508094328 | 48 | 71 | 5.0 | 10.0 | 0.00 | 0.00 | 0.00 | 56 | 1017.0 |
| 20260508094316 | 48 | 18 | 5.0 | 10.0 | 0.00 | 0.00 | 0.00 | 57 | 1017.1 |
| 20260508094054 | 48 | 56 | 5.0 | 10.0 | 0.00 | 0.00 | 0.00 | 56 | 1017.1 |
| 20260508093953 | 48 | 34 | 5.0 | 10.0 | 0.00 | 0.00 | 0.00 | 57 | 1017.1 |
| 20260508093908 | 48 | 67 | 5.0 | 10.0 | 0.00 | 0.00 | 0.00 | 57 | 1017.1 |
| 20260508093903 | 48 | 71 | 5.0 | 10.0 | 0.00 | 0.00 | 0.00 | 57 | 1017.1 |
| 20260508093852 | 48 | 46 | 5.0 | 10.0 | 0.00 | 0.00 | 0.00 | 56 | 1017.2 |
| 20260508093831 | 48 | 59 | 5.0 | 10.0 | 0.00 | 0.00 | 0.00 | 57 | 1017.1 |
| 20260508093451 | 48 | 26 | 5.0 | 10.0 | 0.00 | 0.00 | 0.00 | 57 | 1017.2 |
| 20260508093428 | 48 | 53 | 5.0 | 12.0 | 0.00 | 0.00 | 0.00 | 58 | 1017.2 |
| 20260508093414 | 48 | 60 | 5.0 | 12.0 | 0.00 | 0.00 | 0.00 | 58 | 1017.2 |
| 20260508093235 | 48 | 51 | 5.0 | 12.0 | 0.00 | 0.00 | 0.00 | 58 | 1017.0 |
| 20260508093230 | 48 | 36 | 5.0 | 12.0 | 0.00 | 0.00 | 0.00 | 58 | 1017.1 |
| 20260508093218 | 48 | 28 | 5.0 | 12.0 | 0.00 | 0.00 | 0.00 | 58 | 1017.1 |
| 20260508093031 | 48 | 52 | 5.0 | 12.0 | 0.00 | 0.00 | 0.00 | 58 | 1017.1 |
| 20260508092908 | 48 | 55 | 5.0 | 12.0 | 0.00 | 0.00 | 0.00 | 58 | 1017.1 |
| 20260508092646 | 48 | 59 | 5.0 | 12.0 | 0.00 | 0.00 | 0.00 | 58 | 1017.1 |
| 20260508092540 | 48 | 59 | 5.0 | 12.0 | 0.00 | 0.00 | 0.00 | 58 | 1017.1 |
| 20260508092439 | 48 | 44 | 5.0 | 12.0 | 0.00 | 0.00 | 0.00 | 58 | 1017.0 |
| 20260508092341 | 48 | 60 | 5.0 | 11.0 | 0.00 | 0.00 | 0.00 | 58 | 1017.1 |
| 20260508092239 | 48 | 43 | 5.0 | 11.0 | 0.00 | 0.00 | 0.00 | 58 | 1017.1 |
| 20260508092139 | 48 | 46 | 6.0 | 12.0 | 0.00 | 0.00 | 0.00 | 58 | 1017.1 |
| 20260508092034 | 48 | 36 | 6.0 | 12.0 | 0.00 | 0.00 | 0.00 | 58 | 1017.1 |
| 20260508091932 | 48 | 52 | 6.0 | 12.0 | 0.00 | 0.00 | 0.00 | 57 | 1017.1 |
| 20260508091834 | 48 | 48 | 6.0 | 12.0 | 0.00 | 0.00 | 0.00 | 57 | 1017.0 |
| 20260508091733 | 48 | 61 | 6.0 | 12.0 | 0.00 | 0.00 | 0.00 | 57 | 1017.1 |
| 20260508091633 | 48 | 59 | 6.0 | 12.0 | 0.00 | 0.00 | 0.00 | 57 | 1017.1 |
| 20260508091523 | 48 | 28 | 6.0 | 12.0 | 0.00 | 0.00 | 0.00 | 58 | 1017.0 |
| 20260508091503 | 48 | 57 | 5.0 | 11.0 | 0.00 | 0.00 | 0.00 | 57 | 1017.1 |
| 20260508091458 | 48 | 63 | 5.0 | 11.0 | 0.00 | 0.00 | 0.00 | 58 | 1017.1 |
| 20260508091446 | 48 | 38 | 5.0 | 12.0 | 0.00 | 0.00 | 0.00 | 57 | 1017.1 |
| 20260508091425 | 48 | 61 | 6.0 | 12.0 | 0.00 | 0.00 | 0.00 | 57 | 1017.0 |
| 20260508091259 | 48 | 48 | 5.0 | 11.0 | 0.00 | 0.00 | 0.00 | 58 | 1017.0 |
| 20260508090918 | 48 | 67 | 5.0 | 11.0 | 0.00 | 0.00 | 0.00 | 58 | 1017.0 |
| 20260508090817 | 48 | 65 | 5.0 | 11.0 | 0.00 | 0.00 | 0.00 | 58 | 1017.0 |
| 20260508090717 | 48 | 63 | 5.0 | 11.0 | 0.00 | 0.00 | 0.00 | 58 | 1017.0 |
| 20260508090617 | 48 | 53 | 5.0 | 11.0 | 0.00 | 0.00 | 0.00 | 58 | 1017.0 |
| 20260508090514 | 48 | 63 | 5.0 | 12.0 | 0.00 | 0.00 | 0.00 | 58 | 1017.0 |
| 20260508090414 | 48 | 57 | 5.0 | 12.0 | 0.00 | 0.00 | 0.00 | 57 | 1017.0 |
| 20260508090343 | 48 | 66 | 5.0 | 12.0 | 0.00 | 0.00 | 0.00 | 58 | 1016.9 |
| 20260508090328 | 48 | 53 | 5.0 | 12.0 | 0.00 | 0.00 | 0.00 | 57 | 1017.0 |
| 20260508090313 | 48 | 59 | 5.0 | 12.0 | 0.00 | 0.00 | 0.00 | 57 | 1017.0 |
| 20260508085955 | 48 | 69 | 5.0 | 12.0 | 0.00 | 0.00 | 0.00 | 58 | 1016.9 |
| 20260508085856 | 48 | 53 | 5.0 | 12.0 | 0.00 | 0.00 | 0.00 | 58 | 1017.0 |
| 20260508085757 | 48 | 60 | 5.0 | 12.0 | 0.00 | 0.00 | 0.00 | 57 | 1017.0 |
| 20260508085656 | 48 | 51 | 5.0 | 12.0 | 0.00 | 0.00 | 0.00 | 57 | 1017.0 |
| 20260508085555 | 48 | 61 | 5.0 | 11.0 | 0.00 | 0.00 | 0.00 | 57 | 1017.0 |
| 20260508085449 | 48 | 63 | 5.0 | 11.0 | 0.00 | 0.00 | 0.00 | 57 | 1017.0 |
| 20260508085421 | 48 | 69 | 5.0 | 12.0 | 0.00 | 0.00 | 0.00 | 58 | 1017.0 |
| 20260508085412 | 48 | 38 | 5.0 | 12.0 | 0.00 | 0.00 | 0.00 | 57 | 1017.0 |
| 20260508085150 | 48 | 23 | 5.0 | 12.0 | 0.00 | 0.00 | 0.00 | 58 | 1017.0 |
| 20260508085048 | 48 | 51 | 5.0 | 14.0 | 0.00 | 0.00 | 0.00 | 57 | 1017.0 |
| 20260508084943 | 48 | 67 | 5.0 | 14.0 | 0.00 | 0.00 | 0.00 | 57 | 1017.0 |
| 20260508084842 | 48 | 51 | 5.0 | 14.0 | 0.00 | 0.00 | 0.00 | 57 | 1017.0 |
| 20260508084743 | 48 | 71 | 6.0 | 14.0 | 0.00 | 0.00 | 0.00 | 57 | 1017.0 |
| 20260508084644 | 48 | 71 | 6.0 | 14.0 | 0.00 | 0.00 | 0.00 | 58 | 1017.0 |
| 20260508084543 | 48 | 65 | 6.0 | 14.0 | 0.00 | 0.00 | 0.00 | 57 | 1017.0 |
| 20260508084432 | 48 | 49 | 6.0 | 14.0 | 0.00 | 0.00 | 0.00 | 57 | 1017.0 |
| 20260508084332 | 48 | 49 | 5.0 | 14.0 | 0.00 | 0.00 | 0.00 | 57 | 1017.0 |
| 20260508084232 | 48 | 53 | 5.0 | 14.0 | 0.00 | 0.00 | 0.00 | 57 | 1017.0 |
| 20260508084133 | 48 | 46 | 5.0 | 14.0 | 0.00 | 0.00 | 0.00 | 58 | 1017.0 |
| 20260508084100 | 48 | 58 | 5.0 | 12.0 | 0.00 | 0.00 | 0.00 | 57 | 1017.0 |
| 20260508084050 | 48 | 59 | 5.0 | 12.0 | 0.00 | 0.00 | 0.00 | 58 | 1017.0 |
| 20260508083827 | 48 | 68 | 5.0 | 12.0 | 0.00 | 0.00 | 0.00 | 57 | 1017.0 |
| 20260508083728 | 48 | 27 | 5.0 | 11.0 | 0.00 | 0.00 | 0.00 | 58 | 1016.9 |
| 20260508083626 | 48 | 40 | 5.0 | 11.0 | 0.00 | 0.00 | 0.00 | 57 | 1017.0 |
| 20260508083527 | 48 | 54 | 5.0 | 13.0 | 0.00 | 0.00 | 0.00 | 58 | 1017.0 |
| 20260508083420 | 48 | 63 | 5.0 | 13.0 | 0.00 | 0.00 | 0.00 | 57 | 1017.0 |
| 20260508083354 | 48 | 70 | 5.0 | 13.0 | 0.00 | 0.00 | 0.00 | 57 | 1016.9 |
| 20260508083345 | 48 | 77 | 5.0 | 13.0 | 0.00 | 0.00 | 0.00 | 57 | 1017.0 |
| 20260508083120 | 48 | 53 | 5.0 | 13.0 | 0.00 | 0.00 | 0.00 | 57 | 1016.9 |
| 20260508083021 | 48 | 41 | 5.0 | 13.0 | 0.00 | 0.00 | 0.00 | 57 | 1016.9 |
| 20260508082909 | 48 | 38 | 5.0 | 13.0 | 0.00 | 0.00 | 0.00 | 57 | 1016.9 |
| 20260508082809 | 48 | 58 | 5.0 | 13.0 | 0.00 | 0.00 | 0.00 | 57 | 1016.9 |
| 20260508082708 | 48 | 50 | 5.0 | 13.0 | 0.00 | 0.00 | 0.00 | 57 | 1016.9 |
| 20260508082608 | 48 | 46 | 5.0 | 13.0 | 0.00 | 0.00 | 0.00 | 57 | 1016.9 |
| 20260508082508 | 48 | 34 | 5.0 | 11.0 | 0.00 | 0.00 | 0.00 | 57 | 1016.9 |
| 20260508082406 | 48 | 61 | 5.0 | 10.0 | 0.00 | 0.00 | 0.00 | 58 | 1016.9 |
| 20260508082307 | 48 | 20 | 5.0 | 13.0 | 0.00 | 0.00 | 0.00 | 57 | 1016.8 |
| 20260508082206 | 48 | 18 | 5.0 | 13.0 | 0.00 | 0.00 | 0.00 | 57 | 1016.9 |
| 20260508082104 | 48 | 39 | 5.0 | 13.0 | 0.00 | 0.00 | 0.00 | 57 | 1016.9 |
| 20260508082006 | 48 | 39 | 5.0 | 13.0 | 0.00 | 0.00 | 0.00 | 58 | 1016.8 |
| 20260508081905 | 48 | 47 | 5.0 | 13.0 | 0.00 | 0.00 | 0.00 | 58 | 1016.9 |
| 20260508081804 | 48 | 44 | 5.0 | 13.0 | 0.00 | 0.00 | 0.00 | 57 | 1016.8 |
| 20260508081739 | 48 | 50 | 5.0 | 13.0 | 0.00 | 0.00 | 0.00 | 58 | 1016.8 |
| 20260508081727 | 48 | 21 | 5.0 | 13.0 | 0.00 | 0.00 | 0.00 | 57 | 1016.9 |
| 20260508081504 | 48 | 47 | 5.0 | 13.0 | 0.00 | 0.00 | 0.00 | 57 | 1016.9 |
| 20260508081404 | 48 | 57 | 5.0 | 13.0 | 0.00 | 0.00 | 0.00 | 57 | 1017.0 |
| 20260508081336 | 48 | 59 | 5.0 | 12.0 | 0.00 | 0.00 | 0.00 | 57 | 1017.1 |
| 20260508081325 | 48 | 38 | 5.0 | 12.0 | 0.00 | 0.00 | 0.00 | 58 | 1017.0 |
| 20260508081101 | 49 | 23 | 5.0 | 12.0 | 0.00 | 0.00 | 0.00 | 57 | 1017.0 |
| 20260508081002 | 49 | 50 | 5.0 | 14.0 | 0.00 | 0.00 | 0.00 | 57 | 1017.0 |
| 20260508080902 | 49 | 43 | 5.0 | 14.0 | 0.00 | 0.00 | 0.00 | 58 | 1017.1 |
| 20260508080802 | 49 | 55 | 5.0 | 14.0 | 0.00 | 0.00 | 0.00 | 58 | 1017.1 |
| 20260508080702 | 49 | 59 | 5.0 | 14.0 | 0.00 | 0.00 | 0.00 | 57 | 1017.1 |
| 20260508080602 | 49 | 48 | 5.0 | 14.0 | 0.00 | 0.00 | 0.00 | 57 | 1017.1 |
| 20260508080502 | 49 | 56 | 5.0 | 14.0 | 0.00 | 0.00 | 0.00 | 57 | 1017.1 |
| 20260508080403 | 49 | 57 | 5.0 | 14.0 | 0.00 | 0.00 | 0.00 | 58 | 1017.2 |
| 20260508080300 | 49 | 63 | 5.0 | 14.0 | 0.00 | 0.00 | 0.00 | 57 | 1017.1 |
| 20260508080231 | 49 | 48 | 5.0 | 14.0 | 0.00 | 0.00 | 0.00 | 58 | 1017.1 |
| 20260508080220 | 49 | 55 | 5.0 | 14.0 | 0.00 | 0.00 | 0.00 | 57 | 1017.1 |
| 20260508080000 | 49 | 45 | 5.0 | 12.0 | 0.00 | 0.00 | 0.00 | 57 | 1017.1 |
| 20260508075900 | 49 | 40 | 5.0 | 14.0 | 0.00 | 0.00 | 0.00 | 58 | 1017.2 |
| 20260508075800 | 49 | 32 | 5.0 | 14.0 | 0.00 | 0.00 | 0.00 | 58 | 1017.1 |
| 20260508075658 | 49 | 34 | 6.0 | 14.0 | 0.00 | 0.00 | 0.00 | 57 | 1017.1 |
| 20260508075559 | 49 | 58 | 6.0 | 14.0 | 0.00 | 0.00 | 0.00 | 57 | 1017.1 |
| 20260508075459 | 49 | 66 | 6.0 | 14.0 | 0.00 | 0.00 | 0.00 | 58 | 1017.1 |
| 20260508075358 | 49 | 73 | 5.0 | 14.0 | 0.00 | 0.00 | 0.00 | 58 | 1017.1 |
| 20260508075258 | 49 | 38 | 5.0 | 14.0 | 0.00 | 0.00 | 0.00 | 58 | 1017.2 |
| 20260508075159 | 49 | 43 | 5.0 | 14.0 | 0.00 | 0.00 | 0.00 | 58 | 1017.2 |
| 20260508075118 | 49 | 82 | 5.0 | 14.0 | 0.00 | 0.00 | 0.00 | 58 | 1017.1 |
| 20260508075112 | 49 | 346 | 5.0 | 14.0 | 0.00 | 0.00 | 0.00 | 58 | 1017.2 |
| 20260508075101 | 49 | 55 | 5.0 | 14.0 | 0.00 | 0.00 | 0.00 | 58 | 1017.1 |
| 20260508075039 | 49 | 55 | 5.0 | 14.0 | 0.00 | 0.00 | 0.00 | 59 | 1017.1 |
| 20260508074700 | 49 | 59 | 5.0 | 14.0 | 0.00 | 0.00 | 0.00 | 59 | 1017.1 |
| 20260508074558 | 49 | 14 | 5.0 | 14.0 | 0.00 | 0.00 | 0.00 | 59 | 1017.2 |
| 20260508074459 | 49 | 45 | 5.0 | 14.0 | 0.00 | 0.00 | 0.00 | 59 | 1017.1 |
| 20260508074400 | 49 | 49 | 5.0 | 14.0 | 0.00 | 0.00 | 0.00 | 59 | 1017.0 |
| 20260508074253 | 49 | 55 | 5.0 | 14.0 | 0.00 | 0.00 | 0.00 | 59 | 1017.1 |
| 20260508074152 | 49 | 47 | 5.0 | 14.0 | 0.00 | 0.00 | 0.00 | 60 | 1017.2 |
| 20260508074052 | 49 | 30 | 5.0 | 14.0 | 0.00 | 0.00 | 0.00 | 59 | 1017.2 |
| 20260508073953 | 49 | 67 | 5.0 | 12.0 | 0.00 | 0.00 | 0.00 | 59 | 1017.1 |
| 20260508073924 | 49 | 21 | 5.0 | 12.0 | 0.00 | 0.00 | 0.00 | 58 | 1017.2 |
| 20260508073914 | 49 | 59 | 5.0 | 12.0 | 0.00 | 0.00 | 0.00 | 59 | 1017.2 |
| 20260508073652 | 49 | 38 | 5.0 | 12.0 | 0.00 | 0.00 | 0.00 | 58 | 1017.1 |
| 20260508073553 | 49 | 5 | 5.0 | 12.0 | 0.00 | 0.00 | 0.00 | 58 | 1017.2 |
| 20260508073524 | 49 | 340 | 6.0 | 14.0 | 0.00 | 0.00 | 0.00 | 58 | 1017.1 |
| 20260508073515 | 49 | 45 | 5.0 | 14.0 | 0.00 | 0.00 | 0.00 | 59 | 1017.2 |
| 20260508073254 | 49 | 56 | 6.0 | 14.0 | 0.00 | 0.00 | 0.00 | 59 | 1017.1 |
| 20260508073151 | 49 | 63 | 6.0 | 14.0 | 0.00 | 0.00 | 0.00 | 59 | 1017.1 |
| 20260508073121 | 49 | 34 | 6.0 | 14.0 | 0.00 | 0.00 | 0.00 | 59 | 1017.1 |
| 20260508073111 | 49 | 57 | 6.0 | 14.0 | 0.00 | 0.00 | 0.00 | 58 | 1017.1 |
| 20260508072852 | 49 | 48 | 6.0 | 14.0 | 0.00 | 0.00 | 0.00 | 59 | 1017.1 |
| 20260508072752 | 49 | 50 | 5.0 | 14.0 | 0.00 | 0.01 | 0.00 | 59 | 1017.1 |
| 20260508072651 | 49 | 51 | 5.0 | 14.0 | 0.00 | 0.01 | 0.00 | 58 | 1017.1 |
| 20260508072552 | 49 | 56 | 5.0 | 14.0 | 0.00 | 0.01 | 0.00 | 58 | 1017.1 |
| 20260508072452 | 49 | 51 | 5.0 | 13.0 | 0.00 | 0.01 | 0.00 | 58 | 1017.2 |
| 20260508072352 | 49 | 59 | 5.0 | 13.0 | 0.00 | 0.01 | 0.00 | 58 | 1017.1 |
| 20260508072253 | 49 | 51 | 5.0 | 12.0 | 0.00 | 0.01 | 0.00 | 58 | 1017.2 |
| 20260508072152 | 49 | 33 | 6.0 | 12.0 | 0.00 | 0.01 | 0.00 | 58 | 1017.2 |
| 20260508072053 | 49 | 53 | 6.0 | 13.0 | 0.00 | 0.01 | 0.00 | 58 | 1017.1 |
| 20260508071953 | 49 | 67 | 6.0 | 13.0 | 0.00 | 0.01 | 0.00 | 57 | 1017.1 |
| 20260508071852 | 49 | 40 | 5.0 | 13.0 | 0.00 | 0.01 | 0.00 | 57 | 1017.1 |
| 20260508071752 | 49 | 53 | 6.0 | 13.0 | 0.00 | 0.01 | 0.00 | 57 | 1017.1 |
| 20260508071707 | 49 | 43 | 5.0 | 14.0 | 0.00 | 0.01 | 0.00 | 58 | 1017.1 |
| 20260508071653 | 49 | 48 | 6.0 | 14.0 | 0.00 | 0.01 | 0.00 | 57 | 1017.1 |
| 20260508071646 | 49 | 44 | 6.0 | 14.0 | 0.00 | 0.01 | 0.00 | 59 | 1017.2 |
| 20260508071629 | 49 | 64 | 6.0 | 14.0 | 0.00 | 0.01 | 0.00 | 58 | 1017.2 |
| 20260508071248 | 49 | 53 | 6.0 | 14.0 | 0.00 | 0.01 | 0.00 | 58 | 1017.2 |
| 20260508071147 | 49 | 55 | 5.0 | 14.0 | 0.00 | 0.01 | 0.00 | 58 | 1017.1 |
| 20260508071047 | 49 | 17 | 5.0 | 14.0 | 0.00 | 0.01 | 0.00 | 58 | 1017.1 |
| 20260508070947 | 49 | 69 | 5.0 | 14.0 | 0.00 | 0.01 | 0.00 | 58 | 1017.1 |
| 20260508070841 | 49 | 47 | 5.0 | 14.0 | 0.00 | 0.01 | 0.00 | 58 | 1017.1 |
| 20260508070741 | 49 | 53 | 5.0 | 14.0 | 0.00 | 0.01 | 0.00 | 58 | 1017.2 |
| 20260508070641 | 49 | 333 | 5.0 | 13.0 | 0.00 | 0.01 | 0.00 | 58 | 1017.1 |
| 20260508070540 | 49 | 41 | 5.0 | 13.0 | 0.00 | 0.01 | 0.00 | 58 | 1017.2 |
| 20260508070440 | 49 | 30 | 5.0 | 13.0 | 0.00 | 0.01 | 0.00 | 58 | 1017.2 |
| 20260508070335 | 49 | 42 | 5.0 | 13.0 | 0.00 | 0.01 | 0.00 | 58 | 1017.3 |
| 20260508070235 | 49 | 36 | 5.0 | 13.0 | 0.00 | 0.01 | 0.00 | 58 | 1017.3 |
| 20260508070135 | 49 | 53 | 5.0 | 13.0 | 0.00 | 0.01 | 0.00 | 58 | 1017.2 |
| 20260508070034 | 49 | 24 | 5.0 | 13.0 | 0.00 | 0.01 | 0.00 | 58 | 1017.3 |
| 20260508065935 | 49 | 56 | 5.0 | 13.0 | 0.00 | 0.01 | 0.00 | 59 | 1017.2 |
| 20260508065854 | 49 | 52 | 5.0 | 13.0 | 0.00 | 0.01 | 0.00 | 58 | 1017.2 |
| 20260508065841 | 49 | 39 | 5.0 | 13.0 | 0.00 | 0.01 | 0.00 | 58 | 1017.2 |
| 20260508065653 | 49 | 34 | 5.0 | 13.0 | 0.00 | 0.01 | 0.00 | 58 | 1017.3 |
| 20260508065641 | 49 | 34 | 5.0 | 13.0 | 0.00 | 0.01 | 0.00 | 58 | 1017.3 |
| 20260508065439 | 49 | 42 | 6.0 | 12.0 | 0.00 | 0.01 | 0.00 | 58 | 1017.3 |
| 20260508065427 | 49 | 49 | 5.0 | 13.0 | 0.00 | 0.01 | 0.00 | 58 | 1017.3 |
| 20260508065405 | 49 | 52 | 5.0 | 13.0 | 0.00 | 0.01 | 0.00 | 58 | 1017.4 |
| 20260508065247 | 49 | 54 | 6.0 | 12.0 | 0.00 | 0.01 | 0.00 | 58 | 1017.4 |
| 20260508065238 | 49 | 38 | 5.0 | 13.0 | 0.00 | 0.01 | 0.00 | 58 | 1017.4 |
| 20260508065216 | 49 | 14 | 5.0 | 12.0 | 0.00 | 0.01 | 0.00 | 58 | 1017.4 |
| 20260508065049 | 49 | 56 | 5.0 | 12.0 | 0.00 | 0.01 | 0.00 | 58 | 1017.4 |
| 20260508064708 | 49 | 71 | 6.0 | 12.0 | 0.00 | 0.01 | 0.00 | 58 | 1017.3 |
| 20260508064609 | 49 | 25 | 5.0 | 12.0 | 0.00 | 0.01 | 0.00 | 58 | 1017.4 |
| 20260508064509 | 49 | 36 | 5.0 | 12.0 | 0.00 | 0.01 | 0.00 | 58 | 1017.3 |
| 20260508064437 | 49 | 65 | 5.0 | 12.0 | 0.00 | 0.01 | 0.00 | 58 | 1017.4 |
| 20260508064257 | 49 | 71 | 5.0 | 12.0 | 0.00 | 0.01 | 0.00 | 58 | 1017.3 |
| 20260508064159 | 49 | 50 | 5.0 | 12.0 | 0.00 | 0.01 | 0.00 | 58 | 1017.4 |
| 20260508064059 | 49 | 46 | 5.0 | 12.0 | 0.00 | 0.01 | 0.00 | 59 | 1017.4 |
| 20260508064000 | 49 | 38 | 5.0 | 12.0 | 0.00 | 0.01 | 0.00 | 58 | 1017.5 |
| 20260508063859 | 49 | 15 | 5.0 | 11.0 | 0.00 | 0.01 | 0.00 | 59 | 1017.5 |
| 20260508063754 | 49 | 64 | 5.0 | 11.0 | 0.00 | 0.01 | 0.00 | 58 | 1017.5 |
| 20260508063651 | 49 | 44 | 5.0 | 11.0 | 0.00 | 0.01 | 0.00 | 58 | 1017.5 |
| 20260508063552 | 49 | 44 | 5.0 | 11.0 | 0.00 | 0.01 | 0.00 | 59 | 1017.5 |
| 20260508063545 | 50 | 54 | 5.0 | 13.0 | 0.00 | 0.01 | 0.00 | 59 | 1017.5 |
| 20260508063526 | 49 | 69 | 5.0 | 11.0 | 0.00 | 0.01 | 0.00 | 59 | 1017.4 |
| 20260508063358 | 49 | 34 | 5.0 | 10.0 | 0.00 | 0.01 | 0.00 | 59 | 1017.4 |
| 20260508063333 | 49 | 49 | 5.0 | 13.0 | 0.00 | 0.01 | 0.00 | 59 | 1017.5 |
| 20260508063209 | 50 | 41 | 5.0 | 13.0 | 0.00 | 0.01 | 0.00 | 59 | 1017.5 |
| 20260508062945 | 50 | 54 | 5.0 | 13.0 | 0.00 | 0.01 | 0.00 | 59 | 1017.5 |
| 20260508062847 | 50 | 40 | 6.0 | 13.0 | 0.00 | 0.01 | 0.00 | 58 | 1017.4 |
| 20260508062733 | 50 | 46 | 6.0 | 13.0 | 0.00 | 0.01 | 0.00 | 58 | 1017.4 |
| 20260508062634 | 50 | 41 | 5.0 | 13.0 | 0.00 | 0.01 | 0.00 | 58 | 1017.3 |
| 20260508062533 | 50 | 46 | 6.0 | 13.0 | 0.00 | 0.01 | 0.00 | 58 | 1017.4 |
| 20260508062433 | 50 | 62 | 6.0 | 13.0 | 0.00 | 0.01 | 0.00 | 58 | 1017.4 |
| 20260508062333 | 50 | 38 | 6.0 | 13.0 | 0.00 | 0.01 | 0.00 | 57 | 1017.3 |
| 20260508062300 | 50 | 57 | 6.0 | 13.0 | 0.00 | 0.01 | 0.00 | 59 | 1017.3 |
| 20260508062248 | 50 | 16 | 6.0 | 13.0 | 0.00 | 0.01 | 0.00 | 58 | 1017.4 |
| 20260508062027 | 50 | 77 | 6.0 | 13.0 | 0.00 | 0.01 | 0.00 | 58 | 1017.3 |
| 20260508061927 | 50 | 44 | 6.0 | 12.0 | 0.00 | 0.01 | 0.00 | 58 | 1017.4 |
| 20260508061826 | 50 | 39 | 6.0 | 12.0 | 0.00 | 0.01 | 0.00 | 59 | 1017.4 |
| 20260508061723 | 50 | 44 | 6.0 | 12.0 | 0.00 | 0.01 | 0.00 | 58 | 1017.4 |
| 20260508061622 | 50 | 67 | 6.0 | 14.0 | 0.00 | 0.01 | 0.00 | 58 | 1017.4 |
| 20260508061557 | 50 | 65 | 6.0 | 14.0 | 0.00 | 0.01 | 0.00 | 58 | 1017.4 |
| 20260508061545 | 50 | 59 | 6.0 | 14.0 | 0.00 | 0.01 | 0.00 | 58 | 1017.4 |
| 20260508061321 | 50 | 44 | 6.0 | 14.0 | 0.00 | 0.01 | 0.00 | 58 | 1017.5 |
| 20260508061212 | 50 | 52 | 6.0 | 14.0 | 0.00 | 0.01 | 0.00 | 58 | 1017.4 |
| 20260508061111 | 50 | 41 | 6.0 | 14.0 | 0.00 | 0.01 | 0.00 | 58 | 1017.5 |
| 20260508061047 | 50 | 13 | 6.0 | 14.0 | 0.00 | 0.01 | 0.00 | 58 | 1017.4 |
| 20260508061035 | 50 | 31 | 6.0 | 14.0 | 0.00 | 0.01 | 0.00 | 58 | 1017.4 |
| 20260508060811 | 50 | 50 | 6.0 | 14.0 | 0.00 | 0.01 | 0.00 | 57 | 1017.4 |
| 20260508060759 | 50 | 49 | 6.0 | 14.0 | 0.00 | 0.01 | 0.00 | 58 | 1017.5 |
| 20260508060739 | 50 | 62 | 6.0 | 13.0 | 0.00 | 0.01 | 0.00 | 58 | 1017.4 |
| 20260508060619 | 50 | 68 | 6.0 | 14.0 | 0.00 | 0.01 | 0.00 | 58 | 1017.4 |
| 20260508060608 | 50 | 51 | 6.0 | 13.0 | 0.00 | 0.01 | 0.00 | 58 | 1017.4 |
| 20260508060545 | 50 | 61 | 6.0 | 14.0 | 0.00 | 0.01 | 0.00 | 58 | 1017.5 |
| 20260508060159 | 50 | 64 | 6.0 | 14.0 | 0.00 | 0.01 | 0.00 | 59 | 1017.5 |
| 20260508060100 | 50 | 25 | 6.0 | 14.0 | 0.00 | 0.01 | 0.00 | 58 | 1017.4 |
| 20260508055959 | 50 | 33 | 6.0 | 14.0 | 0.00 | 0.01 | 0.00 | 58 | 1017.5 |
| 20260508055859 | 50 | 32 | 5.0 | 14.0 | 0.00 | 0.01 | 0.00 | 59 | 1017.5 |
| 20260508055758 | 50 | 41 | 6.0 | 14.0 | 0.00 | 0.01 | 0.00 | 58 | 1017.5 |
| 20260508055647 | 50 | 42 | 6.0 | 14.0 | 0.00 | 0.01 | 0.00 | 58 | 1017.5 |
| 20260508055545 | 50 | 37 | 5.0 | 15.0 | 0.00 | 0.01 | 0.00 | 58 | 1017.6 |
| 20260508055445 | 50 | 63 | 5.0 | 15.0 | 0.00 | 0.01 | 0.00 | 58 | 1017.5 |
| 20260508055420 | 50 | 37 | 5.0 | 15.0 | 0.00 | 0.01 | 0.00 | 59 | 1017.5 |
| 20260508055409 | 50 | 46 | 5.0 | 15.0 | 0.00 | 0.01 | 0.00 | 59 | 1017.5 |
| 20260508055210 | 50 | 60 | 5.0 | 15.0 | 0.00 | 0.01 | 0.00 | 58 | 1017.5 |
| 20260508055159 | 50 | 61 | 5.0 | 15.0 | 0.00 | 0.01 | 0.00 | 59 | 1017.5 |
| 20260508054939 | 50 | 40 | 5.0 | 15.0 | 0.00 | 0.01 | 0.00 | 58 | 1017.5 |
| 20260508054839 | 50 | 44 | 5.0 | 15.0 | 0.00 | 0.01 | 0.00 | 58 | 1017.5 |
| 20260508054739 | 50 | 60 | 5.0 | 15.0 | 0.00 | 0.01 | 0.00 | 58 | 1017.6 |
| 20260508054633 | 50 | 26 | 5.0 | 15.0 | 0.00 | 0.01 | 0.00 | 58 | 1017.6 |
| 20260508054532 | 50 | 20 | 5.0 | 14.0 | 0.00 | 0.01 | 0.00 | 58 | 1017.5 |
| 20260508054433 | 50 | 57 | 5.0 | 14.0 | 0.00 | 0.01 | 0.00 | 58 | 1017.5 |
| 20260508054333 | 50 | 58 | 5.0 | 14.0 | 0.00 | 0.01 | 0.00 | 59 | 1017.5 |
| 20260508054233 | 50 | 63 | 5.0 | 14.0 | 0.00 | 0.01 | 0.00 | 58 | 1017.5 |
| 20260508054122 | 50 | 52 | 5.0 | 14.0 | 0.00 | 0.01 | 0.00 | 58 | 1017.5 |
| 20260508054022 | 50 | 36 | 5.0 | 11.0 | 0.00 | 0.01 | 0.00 | 58 | 1017.5 |
| 20260508053922 | 50 | 55 | 5.0 | 11.0 | 0.00 | 0.01 | 0.00 | 58 | 1017.5 |
| 20260508053823 | 50 | 68 | 5.0 | 11.0 | 0.00 | 0.01 | 0.00 | 59 | 1017.6 |
| 20260508053722 | 50 | 37 | 5.0 | 11.0 | 0.00 | 0.01 | 0.00 | 58 | 1017.6 |
| 20260508053617 | 50 | 69 | 5.0 | 11.0 | 0.00 | 0.01 | 0.00 | 58 | 1017.6 |
| 20260508053517 | 50 | 50 | 5.0 | 11.0 | 0.00 | 0.01 | 0.00 | 59 | 1017.6 |
| 20260508053417 | 50 | 60 | 5.0 | 11.0 | 0.00 | 0.01 | 0.00 | 58 | 1017.6 |
| 20260508053317 | 50 | 39 | 5.0 | 11.0 | 0.00 | 0.01 | 0.00 | 59 | 1017.7 |
| 20260508053217 | 50 | 32 | 5.0 | 11.0 | 0.00 | 0.01 | 0.00 | 60 | 1017.6 |
| 20260508053115 | 50 | 51 | 5.0 | 11.0 | 0.00 | 0.01 | 0.00 | 59 | 1017.6 |
| 20260508053016 | 50 | 101 | 5.0 | 11.0 | 0.00 | 0.01 | 0.00 | 59 | 1017.5 |
| 20260508052915 | 50 | 45 | 5.0 | 11.0 | 0.00 | 0.01 | 0.00 | 60 | 1017.6 |
| 20260508052817 | 50 | 21 | 5.0 | 11.0 | 0.00 | 0.01 | 0.00 | 60 | 1017.6 |
| 20260508052751 | 50 | 33 | 5.0 | 11.0 | 0.00 | 0.01 | 0.00 | 59 | 1017.6 |
| 20260508052739 | 50 | 38 | 5.0 | 11.0 | 0.00 | 0.01 | 0.00 | 58 | 1017.6 |
| 20260508052516 | 50 | 36 | 5.0 | 10.0 | 0.00 | 0.01 | 0.00 | 59 | 1017.7 |
| 20260508052441 | 50 | 36 | 5.0 | 11.0 | 0.00 | 0.01 | 0.00 | 60 | 1017.6 |
| 20260508052431 | 50 | 50 | 5.0 | 10.0 | 0.00 | 0.01 | 0.00 | 60 | 1017.6 |
| 20260508052210 | 50 | 355 | 5.0 | 11.0 | 0.00 | 0.01 | 0.00 | 59 | 1017.7 |
| 20260508052110 | 50 | 40 | 5.0 | 11.0 | 0.00 | 0.01 | 0.00 | 60 | 1017.6 |
| 20260508052010 | 50 | 55 | 5.0 | 11.0 | 0.00 | 0.01 | 0.00 | 59 | 1017.7 |
| 20260508051910 | 50 | 22 | 5.0 | 11.0 | 0.00 | 0.01 | 0.00 | 60 | 1017.7 |
| 20260508051812 | 50 | 42 | 4.0 | 11.0 | 0.00 | 0.01 | 0.00 | 59 | 1017.7 |
| 20260508051710 | 50 | 39 | 4.0 | 11.0 | 0.00 | 0.01 | 0.00 | 60 | 1017.7 |
| 20260508051610 | 50 | 346 | 5.0 | 11.0 | 0.00 | 0.01 | 0.00 | 59 | 1017.7 |
| 20260508051509 | 50 | 65 | 4.0 | 11.0 | 0.00 | 0.01 | 0.00 | 59 | 1017.9 |
| 20260508051409 | 50 | 59 | 4.0 | 11.0 | 0.00 | 0.01 | 0.00 | 59 | 1017.8 |
| 20260508051310 | 50 | 65 | 4.0 | 11.0 | 0.00 | 0.01 | 0.00 | 59 | 1017.7 |
| 20260508051210 | 50 | 34 | 4.0 | 11.0 | 0.00 | 0.01 | 0.00 | 60 | 1017.8 |
| 20260508051111 | 50 | 20 | 4.0 | 11.0 | 0.00 | 0.01 | 0.00 | 59 | 1017.7 |
| 20260508051011 | 51 | 5 | 4.0 | 11.0 | 0.00 | 0.01 | 0.00 | 60 | 1017.7 |
| 20260508050907 | 51 | 52 | 4.0 | 11.0 | 0.00 | 0.01 | 0.00 | 59 | 1017.7 |
| 20260508050809 | 51 | 55 | 5.0 | 11.0 | 0.00 | 0.01 | 0.00 | 59 | 1017.6 |
| 20260508050705 | 51 | 23 | 5.0 | 11.0 | 0.00 | 0.01 | 0.00 | 59 | 1017.7 |
| 20260508050603 | 51 | 69 | 5.0 | 11.0 | 0.00 | 0.02 | 0.00 | 60 | 1017.7 |
| 20260508050504 | 51 | 42 | 5.0 | 10.0 | 0.00 | 0.02 | 0.00 | 60 | 1017.7 |
| 20260508050404 | 51 | 96 | 5.0 | 10.0 | 0.00 | 0.02 | 0.00 | 59 | 1017.8 |
| 20260508050305 | 51 | 63 | 5.0 | 10.0 | 0.00 | 0.02 | 0.00 | 59 | 1017.8 |
| 20260508050238 | 51 | 32 | 5.0 | 10.0 | 0.00 | 0.02 | 0.00 | 59 | 1017.7 |
| 20260508050226 | 51 | 43 | 5.0 | 10.0 | 0.00 | 0.02 | 0.00 | 59 | 1017.7 |
| 20260508050003 | 51 | 51 | 5.0 | 10.0 | 0.00 | 0.02 | 0.00 | 59 | 1017.7 |
| 20260508045903 | 51 | 21 | 5.0 | 10.0 | 0.00 | 0.02 | 0.02 | 60 | 1017.7 |
| 20260508045845 | 51 | 63 | 5.0 | 10.0 | 0.00 | 0.02 | 0.02 | 60 | 1017.6 |
| 20260508045839 | 51 | 56 | 5.0 | 10.0 | 0.00 | 0.02 | 0.02 | 60 | 1017.7 |
| 20260508045834 | 51 | 57 | 5.0 | 10.0 | 0.00 | 0.02 | 0.02 | 60 | 1017.7 |
| 20260508045824 | 51 | 55 | 5.0 | 10.0 | 0.00 | 0.02 | 0.02 | 60 | 1017.7 |
| 20260508045643 | 51 | 62 | 5.0 | 10.0 | 0.00 | 0.02 | 0.02 | 59 | 1017.7 |
| 20260508045307 | 51 | 61 | 5.0 | 12.0 | 0.00 | 0.02 | 0.02 | 60 | 1017.7 |
| 20260508045203 | 51 | 39 | 5.0 | 12.0 | 0.00 | 0.02 | 0.02 | 60 | 1017.8 |
| 20260508045104 | 51 | 58 | 5.0 | 12.0 | 0.00 | 0.02 | 0.02 | 60 | 1017.8 |
| 20260508045001 | 51 | 49 | 5.0 | 12.0 | 0.00 | 0.02 | 0.02 | 60 | 1017.8 |
| 20260508044931 | 51 | 60 | 5.0 | 12.0 | 0.00 | 0.02 | 0.02 | 60 | 1017.8 |
| 20260508044922 | 51 | 60 | 5.0 | 12.0 | 0.00 | 0.02 | 0.02 | 60 | 1017.8 |
| 20260508044701 | 51 | 35 | 5.0 | 12.0 | 0.00 | 0.02 | 0.02 | 60 | 1017.8 |
| 20260508044601 | 51 | 51 | 5.0 | 12.0 | 0.00 | 0.02 | 0.02 | 60 | 1017.8 |
| 20260508044501 | 51 | 38 | 5.0 | 12.0 | 0.00 | 0.02 | 0.02 | 60 | 1017.9 |
| 20260508044401 | 51 | 41 | 5.0 | 12.0 | 0.00 | 0.02 | 0.02 | 61 | 1017.9 |
| 20260508044300 | 51 | 65 | 5.0 | 10.0 | 0.00 | 0.02 | 0.02 | 61 | 1017.9 |
| 20260508044159 | 51 | 36 | 5.0 | 10.0 | 0.00 | 0.02 | 0.02 | 61 | 1017.9 |
| 20260508044101 | 51 | 60 | 5.0 | 11.0 | 0.00 | 0.02 | 0.02 | 61 | 1017.9 |
| 20260508044034 | 51 | 5 | 5.0 | 11.0 | 0.00 | 0.02 | 0.02 | 62 | 1017.9 |
| 20260508044022 | 51 | 61 | 5.0 | 11.0 | 0.00 | 0.02 | 0.02 | 61 | 1017.9 |
| 20260508043827 | 51 | 42 | 4.0 | 11.0 | 0.00 | 0.02 | 0.02 | 61 | 1017.9 |
| 20260508043815 | 51 | 53 | 5.0 | 11.0 | 0.00 | 0.02 | 0.02 | 61 | 1017.9 |
| 20260508043554 | 51 | 72 | 5.0 | 11.0 | 0.00 | 0.02 | 0.02 | 62 | 1017.9 |
| 20260508043454 | 51 | 52 | 5.0 | 11.0 | 0.00 | 0.02 | 0.02 | 62 | 1017.9 |
| 20260508043353 | 51 | 61 | 5.0 | 11.0 | 0.00 | 0.02 | 0.02 | 62 | 1017.9 |
| 20260508043250 | 51 | 59 | 5.0 | 11.0 | 0.00 | 0.02 | 0.02 | 62 | 1017.8 |
| 20260508043208 | 51 | 55 | 5.0 | 11.0 | 0.00 | 0.02 | 0.02 | 63 | 1017.9 |
| 20260508043204 | 51 | 50 | 5.0 | 10.0 | 0.00 | 0.02 | 0.02 | 62 | 1017.9 |
| 20260508043152 | 51 | 24 | 5.0 | 11.0 | 0.00 | 0.02 | 0.02 | 62 | 1017.9 |
| 20260508043130 | 51 | 55 | 5.0 | 11.0 | 0.00 | 0.02 | 0.02 | 62 | 1017.9 |
| 20260508042813 | 51 | 29 | 5.0 | 11.0 | 0.00 | 0.02 | 0.02 | 63 | 1017.9 |
| 20260508042802 | 51 | 10 | 5.0 | 11.0 | 0.00 | 0.02 | 0.02 | 62 | 1017.9 |
| 20260508042542 | 51 | 69 | 5.0 | 11.0 | 0.00 | 0.02 | 0.02 | 62 | 1017.9 |
| 20260508042443 | 51 | 60 | 5.0 | 12.0 | 0.00 | 0.02 | 0.02 | 62 | 1017.9 |
| 20260508042419 | 51 | 47 | 5.0 | 12.0 | 0.00 | 0.02 | 0.02 | 61 | 1017.8 |
| 20260508042404 | 51 | 60 | 5.0 | 12.0 | 0.00 | 0.02 | 0.02 | 62 | 1017.9 |
| 20260508042144 | 51 | 39 | 5.0 | 12.0 | 0.00 | 0.02 | 0.02 | 62 | 1017.9 |
| 20260508042042 | 51 | 45 | 5.0 | 12.0 | 0.00 | 0.02 | 0.02 | 61 | 1017.9 |
| 20260508041937 | 51 | 26 | 5.0 | 12.0 | 0.00 | 0.02 | 0.02 | 62 | 1017.9 |
| 20260508041837 | 51 | 16 | 5.0 | 12.0 | 0.00 | 0.02 | 0.02 | 62 | 1017.9 |
| 20260508041736 | 51 | 63 | 5.0 | 12.0 | 0.00 | 0.02 | 0.02 | 62 | 1017.9 |
| 20260508041715 | 51 | 25 | 5.0 | 12.0 | 0.00 | 0.02 | 0.02 | 62 | 1017.9 |
| 20260508041700 | 51 | 48 | 5.0 | 12.0 | 0.00 | 0.02 | 0.02 | 62 | 1017.9 |
| 20260508041511 | 51 | 63 | 6.0 | 12.0 | 0.00 | 0.02 | 0.02 | 62 | 1017.9 |
| 20260508041500 | 51 | 38 | 5.0 | 12.0 | 0.00 | 0.02 | 0.02 | 62 | 1017.9 |
| 20260508041237 | 51 | 36 | 6.0 | 12.0 | 0.00 | 0.02 | 0.02 | 62 | 1017.8 |
| 20260508041136 | 51 | 13 | 6.0 | 12.0 | 0.00 | 0.02 | 0.02 | 62 | 1017.8 |
| 20260508041037 | 51 | 19 | 6.0 | 12.0 | 0.00 | 0.02 | 0.02 | 62 | 1017.8 |
| 20260508040936 | 51 | 55 | 6.0 | 12.0 | 0.00 | 0.02 | 0.02 | 62 | 1017.8 |
| 20260508040838 | 51 | 48 | 6.0 | 13.0 | 0.00 | 0.02 | 0.02 | 62 | 1017.9 |
| 20260508040737 | 51 | 32 | 6.0 | 13.0 | 0.00 | 0.02 | 0.02 | 62 | 1017.7 |
| 20260508040711 | 51 | 30 | 5.0 | 13.0 | 0.00 | 0.02 | 0.02 | 63 | 1017.9 |
| 20260508040659 | 51 | 51 | 6.0 | 13.0 | 0.00 | 0.02 | 0.02 | 62 | 1017.8 |
| 20260508040437 | 51 | 46 | 6.0 | 13.0 | 0.00 | 0.02 | 0.02 | 62 | 1017.8 |
| 20260508040412 | 51 | 0 | 6.0 | 13.0 | 0.00 | 0.02 | 0.02 | 62 | 1017.9 |
| 20260508040359 | 51 | 62 | 6.0 | 13.0 | 0.00 | 0.02 | 0.02 | 63 | 1017.9 |
| 20260508040133 | 51 | 76 | 6.0 | 13.0 | 0.00 | 0.02 | 0.02 | 63 | 1017.8 |
| 20260508040032 | 51 | 56 | 6.0 | 13.0 | 0.00 | 0.02 | 0.02 | 63 | 1017.9 |
| 20260508035932 | 51 | 49 | 6.0 | 12.0 | 0.00 | 0.02 | 0.02 | 63 | 1017.8 |
| 20260508035832 | 51 | 109 | 6.0 | 12.0 | 0.00 | 0.02 | 0.02 | 63 | 1017.7 |
| 20260508035733 | 51 | 59 | 5.0 | 12.0 | 0.00 | 0.02 | 0.02 | 63 | 1017.7 |
| 20260508035634 | 51 | 16 | 5.0 | 12.0 | 0.00 | 0.02 | 0.02 | 63 | 1017.7 |
| 20260508035534 | 51 | 15 | 5.0 | 12.0 | 0.00 | 0.02 | 0.02 | 62 | 1017.7 |
| 20260508035521 | 51 | 36 | 5.0 | 12.0 | 0.00 | 0.02 | 0.02 | 63 | 1017.7 |
| 20260508035504 | 51 | 37 | 5.0 | 12.0 | 0.00 | 0.02 | 0.02 | 63 | 1017.7 |
| 20260508035230 | 51 | 20 | 5.0 | 12.0 | 0.00 | 0.02 | 0.02 | 62 | 1017.7 |
| 20260508035129 | 51 | 49 | 5.0 | 12.0 | 0.00 | 0.02 | 0.02 | 63 | 1017.8 |
| 20260508035028 | 51 | 63 | 5.0 | 12.0 | 0.00 | 0.02 | 0.02 | 62 | 1017.7 |
| 20260508034929 | 51 | 21 | 5.0 | 13.0 | 0.00 | 0.02 | 0.02 | 62 | 1017.7 |
| 20260508034829 | 51 | 47 | 5.0 | 13.0 | 0.00 | 0.02 | 0.02 | 62 | 1017.8 |
| 20260508034730 | 51 | 29 | 5.0 | 13.0 | 0.00 | 0.02 | 0.02 | 62 | 1017.8 |
| 20260508034628 | 51 | 29 | 6.0 | 13.0 | 0.00 | 0.02 | 0.02 | 62 | 1017.8 |
| 20260508034528 | 51 | 56 | 6.0 | 13.0 | 0.00 | 0.02 | 0.02 | 62 | 1017.8 |
| 20260508034429 | 51 | 63 | 6.0 | 13.0 | 0.00 | 0.02 | 0.02 | 62 | 1017.9 |
| 20260508034400 | 51 | 71 | 6.0 | 13.0 | 0.00 | 0.02 | 0.02 | 62 | 1017.9 |
| 20260508034349 | 51 | 55 | 6.0 | 13.0 | 0.00 | 0.02 | 0.02 | 62 | 1017.9 |
| 20260508034128 | 51 | 47 | 6.0 | 13.0 | 0.00 | 0.02 | 0.02 | 62 | 1017.9 |
| 20260508034028 | 51 | 17 | 6.0 | 13.0 | 0.00 | 0.02 | 0.02 | 62 | 1017.9 |
| 20260508033929 | 51 | 9 | 6.0 | 12.0 | 0.00 | 0.02 | 0.02 | 62 | 1017.9 |
| 20260508033828 | 51 | 50 | 5.0 | 12.0 | 0.00 | 0.02 | 0.02 | 62 | 1017.8 |
| 20260508033728 | 51 | 49 | 5.0 | 12.0 | 0.00 | 0.02 | 0.02 | 62 | 1017.7 |
| 20260508033629 | 51 | 17 | 5.0 | 12.0 | 0.00 | 0.02 | 0.02 | 62 | 1017.8 |
| 20260508033530 | 51 | 19 | 5.0 | 12.0 | 0.00 | 0.02 | 0.02 | 62 | 1017.7 |
| 20260508033429 | 51 | 33 | 5.0 | 12.0 | 0.00 | 0.02 | 0.02 | 63 | 1017.8 |
| 20260508033329 | 51 | 38 | 5.0 | 12.0 | 0.00 | 0.02 | 0.02 | 63 | 1017.8 |
| 20260508033229 | 51 | 40 | 5.0 | 12.0 | 0.00 | 0.02 | 0.02 | 63 | 1017.9 |
| 20260508033128 | 51 | 342 | 5.0 | 12.0 | 0.00 | 0.02 | 0.02 | 62 | 1017.8 |
| 20260508033030 | 51 | 0 | 5.0 | 12.0 | 0.00 | 0.02 | 0.02 | 63 | 1017.8 |
| 20260508032930 | 51 | 34 | 5.0 | 12.0 | 0.00 | 0.02 | 0.02 | 63 | 1017.8 |
| 20260508032902 | 51 | 16 | 5.0 | 12.0 | 0.00 | 0.02 | 0.02 | 63 | 1017.9 |
| 20260508032848 | 51 | 43 | 5.0 | 12.0 | 0.00 | 0.02 | 0.02 | 63 | 1017.8 |
| 20260508032626 | 51 | 26 | 5.0 | 11.0 | 0.00 | 0.02 | 0.02 | 63 | 1017.7 |
| 20260508032524 | 51 | 20 | 5.0 | 11.0 | 0.00 | 0.02 | 0.02 | 63 | 1017.8 |
| 20260508032425 | 51 | 70 | 5.0 | 11.0 | 0.00 | 0.02 | 0.02 | 63 | 1017.7 |
| 20260508032326 | 51 | 0 | 5.0 | 11.0 | 0.00 | 0.02 | 0.02 | 63 | 1017.7 |
| 20260508032225 | 51 | 5 | 5.0 | 10.0 | 0.00 | 0.02 | 0.02 | 63 | 1017.8 |
| 20260508032121 | 51 | 28 | 5.0 | 10.0 | 0.00 | 0.02 | 0.02 | 64 | 1017.7 |
| 20260508032022 | 51 | 5 | 5.0 | 10.0 | 0.00 | 0.02 | 0.02 | 64 | 1017.7 |
| 20260508031954 | 51 | 51 | 5.0 | 10.0 | 0.00 | 0.02 | 0.02 | 63 | 1017.6 |
| 20260508031943 | 51 | 26 | 5.0 | 10.0 | 0.00 | 0.02 | 0.02 | 63 | 1017.7 |
| 20260508031720 | 52 | 26 | 5.0 | 10.0 | 0.00 | 0.02 | 0.02 | 64 | 1017.5 |
| 20260508031621 | 52 | 49 | 5.0 | 10.0 | 0.00 | 0.02 | 0.02 | 63 | 1017.6 |
| 20260508031551 | 52 | 64 | 5.0 | 10.0 | 0.00 | 0.02 | 0.02 | 63 | 1017.7 |
| 20260508031542 | 52 | 61 | 5.0 | 10.0 | 0.00 | 0.02 | 0.02 | 63 | 1017.5 |
| 20260508031322 | 52 | 50 | 5.0 | 10.0 | 0.00 | 0.02 | 0.02 | 63 | 1017.5 |
| 20260508031220 | 51 | 39 | 5.0 | 10.0 | 0.00 | 0.02 | 0.02 | 63 | 1017.5 |
| 20260508031129 | 51 | 22 | 5.0 | 10.0 | 0.00 | 0.02 | 0.02 | 64 | 1017.5 |
| 20260508031119 | 51 | 26 | 5.0 | 10.0 | 0.00 | 0.02 | 0.02 | 63 | 1017.6 |
| 20260508031057 | 52 | 59 | 5.0 | 10.0 | 0.00 | 0.02 | 0.02 | 63 | 1017.5 |
| 20260508030933 | 51 | 18 | 5.0 | 10.0 | 0.00 | 0.02 | 0.02 | 63 | 1017.5 |
| 20260508030743 | 52 | 82 | 5.0 | 9.0 | 0.00 | 0.02 | 0.02 | 64 | 1017.4 |
| 20260508030732 | 51 | 44 | 5.0 | 10.0 | 0.00 | 0.02 | 0.02 | 64 | 1017.4 |
| 20260508030509 | 52 | 62 | 5.0 | 9.0 | 0.00 | 0.02 | 0.02 | 64 | 1017.4 |
| 20260508030404 | 52 | 32 | 5.0 | 9.0 | 0.00 | 0.02 | 0.02 | 63 | 1017.4 |
| 20260508030304 | 52 | 25 | 5.0 | 9.0 | 0.00 | 0.02 | 0.02 | 63 | 1017.4 |
| 20260508030204 | 52 | 9 | 5.0 | 9.0 | 0.00 | 0.02 | 0.02 | 64 | 1017.5 |
| 20260508030137 | 51 | 51 | 4.0 | 9.0 | 0.00 | 0.02 | 0.02 | 64 | 1017.5 |
| 20260508030126 | 51 | 38 | 5.0 | 9.0 | 0.00 | 0.02 | 0.02 | 64 | 1017.5 |
| 20260508025934 | 52 | 38 | 4.0 | 10.0 | 0.00 | 0.02 | 0.02 | 64 | 1017.5 |
| 20260508025920 | 52 | 13 | 4.0 | 9.0 | 0.00 | 0.02 | 0.02 | 64 | 1017.6 |
| 20260508025733 | 52 | 57 | 5.0 | 10.0 | 0.00 | 0.02 | 0.02 | 64 | 1017.6 |
| 20260508025721 | 52 | 346 | 4.0 | 10.0 | 0.00 | 0.02 | 0.02 | 64 | 1017.6 |
| 20260508025456 | 52 | 9 | 5.0 | 10.0 | 0.00 | 0.02 | 0.02 | 64 | 1017.5 |
| 20260508025344 | 52 | 13 | 5.0 | 10.0 | 0.00 | 0.02 | 0.02 | 64 | 1017.5 |
| 20260508025244 | 52 | 53 | 4.0 | 10.0 | 0.00 | 0.02 | 0.02 | 63 | 1017.5 |
| 20260508025220 | 52 | 36 | 5.0 | 11.0 | 0.00 | 0.02 | 0.02 | 64 | 1017.5 |
| 20260508025207 | 52 | 24 | 5.0 | 10.0 | 0.00 | 0.02 | 0.02 | 64 | 1017.6 |
| 20260508024943 | 52 | 44 | 5.0 | 11.0 | 0.00 | 0.02 | 0.02 | 63 | 1017.5 |
| 20260508024928 | 52 | 41 | 4.0 | 11.0 | 0.00 | 0.02 | 0.02 | 63 | 1017.5 |
| 20260508024923 | 52 | 55 | 4.0 | 11.0 | 0.00 | 0.02 | 0.02 | 63 | 1017.5 |
| 20260508024918 | 52 | 5 | 4.0 | 11.0 | 0.00 | 0.02 | 0.02 | 63 | 1017.6 |
| 20260508024904 | 52 | 32 | 5.0 | 11.0 | 0.00 | 0.02 | 0.02 | 63 | 1017.6 |
| 20260508024717 | 52 | 29 | 4.0 | 11.0 | 0.00 | 0.02 | 0.02 | 63 | 1017.5 |
| 20260508024331 | 52 | 76 | 4.0 | 11.0 | 0.00 | 0.02 | 0.02 | 63 | 1017.5 |
| 20260508024230 | 52 | 49 | 4.0 | 11.0 | 0.00 | 0.02 | 0.02 | 63 | 1017.6 |
| 20260508024204 | 52 | 9 | 4.0 | 8.0 | 0.00 | 0.02 | 0.02 | 63 | 1017.6 |
| 20260508024153 | 52 | 355 | 4.0 | 10.0 | 0.00 | 0.02 | 0.02 | 63 | 1017.6 |
| 20260508023930 | 52 | 34 | 4.0 | 8.0 | 0.00 | 0.02 | 0.02 | 63 | 1017.6 |
| 20260508023820 | 52 | 0 | 4.0 | 9.0 | 0.00 | 0.02 | 0.02 | 63 | 1017.6 |
| 20260508023720 | 52 | 32 | 4.0 | 9.0 | 0.00 | 0.02 | 0.02 | 64 | 1017.6 |
| 20260508023620 | 52 | 28 | 4.0 | 9.0 | 0.00 | 0.02 | 0.02 | 63 | 1017.6 |
| 20260508023521 | 52 | 54 | 4.0 | 9.0 | 0.00 | 0.02 | 0.02 | 63 | 1017.5 |
| 20260508023421 | 52 | 59 | 4.0 | 9.0 | 0.00 | 0.02 | 0.02 | 62 | 1017.6 |
| 20260508023318 | 52 | 35 | 4.0 | 9.0 | 0.00 | 0.02 | 0.02 | 62 | 1017.6 |
| 20260508023249 | 52 | 22 | 4.0 | 9.0 | 0.00 | 0.02 | 0.02 | 63 | 1017.6 |
| 20260508023239 | 52 | 16 | 4.0 | 9.0 | 0.00 | 0.02 | 0.02 | 62 | 1017.6 |
| 20260508023018 | 52 | 30 | 4.0 | 10.0 | 0.00 | 0.02 | 0.02 | 63 | 1017.6 |
| 20260508022915 | 52 | 5 | 5.0 | 10.0 | 0.00 | 0.02 | 0.02 | 63 | 1017.6 |
| 20260508022841 | 52 | 25 | 5.0 | 10.0 | 0.00 | 0.02 | 0.02 | 62 | 1017.5 |
| 20260508022830 | 52 | 65 | 5.0 | 10.0 | 0.00 | 0.02 | 0.02 | 63 | 1017.5 |
| 20260508022607 | 52 | 14 | 5.0 | 10.0 | 0.00 | 0.02 | 0.02 | 62 | 1017.6 |
| 20260508022506 | 52 | 39 | 5.0 | 10.0 | 0.00 | 0.02 | 0.02 | 62 | 1017.5 |
| 20260508022407 | 52 | 78 | 5.0 | 10.0 | 0.00 | 0.02 | 0.02 | 63 | 1017.5 |
| 20260508022252 | 52 | 39 | 5.0 | 11.0 | 0.00 | 0.02 | 0.02 | 62 | 1017.6 |
| 20260508022154 | 52 | 355 | 5.0 | 11.0 | 0.00 | 0.02 | 0.02 | 62 | 1017.6 |
| 20260508022054 | 52 | 20 | 4.0 | 11.0 | 0.00 | 0.02 | 0.02 | 63 | 1017.5 |
| 20260508021952 | 52 | 0 | 4.0 | 11.0 | 0.00 | 0.02 | 0.02 | 63 | 1017.5 |
| 20260508021923 | 52 | 355 | 5.0 | 11.0 | 0.00 | 0.02 | 0.02 | 62 | 1017.5 |
| 20260508021913 | 52 | 40 | 4.0 | 11.0 | 0.00 | 0.02 | 0.02 | 62 | 1017.5 |
| 20260508021650 | 52 | 10 | 4.0 | 11.0 | 0.00 | 0.02 | 0.02 | 62 | 1017.4 |
| 20260508021549 | 52 | 5 | 4.0 | 11.0 | 0.00 | 0.02 | 0.02 | 62 | 1017.4 |
| 20260508021520 | 52 | 45 | 4.0 | 9.0 | 0.00 | 0.02 | 0.02 | 62 | 1017.4 |
| 20260508021509 | 52 | 77 | 4.0 | 11.0 | 0.00 | 0.02 | 0.02 | 62 | 1017.4 |
| 20260508021241 | 52 | 5 | 4.0 | 9.0 | 0.00 | 0.02 | 0.02 | 63 | 1017.4 |
| 20260508021140 | 52 | 82 | 4.0 | 9.0 | 0.00 | 0.02 | 0.02 | 62 | 1017.4 |
| 20260508021040 | 52 | 15 | 4.0 | 9.0 | 0.00 | 0.02 | 0.02 | 63 | 1017.5 |
| 20260508020938 | 52 | 350 | 4.0 | 9.0 | 0.00 | 0.02 | 0.02 | 62 | 1017.5 |
| 20260508020903 | 52 | 5 | 4.0 | 9.0 | 0.00 | 0.02 | 0.02 | 63 | 1017.5 |
| 20260508020853 | 52 | 350 | 4.0 | 9.0 | 0.00 | 0.02 | 0.02 | 62 | 1017.5 |
| 20260508020630 | 52 | 27 | 4.0 | 9.0 | 0.00 | 0.02 | 0.02 | 62 | 1017.4 |
| 20260508020532 | 52 | 34 | 4.0 | 9.0 | 0.00 | 0.02 | 0.02 | 62 | 1017.4 |
| 20260508020432 | 52 | 5 | 4.0 | 9.0 | 0.00 | 0.02 | 0.02 | 62 | 1017.4 |
| 20260508020331 | 52 | 5 | 4.0 | 9.0 | 0.00 | 0.02 | 0.02 | 63 | 1017.4 |
| 20260508020305 | 52 | 17 | 4.0 | 8.0 | 0.00 | 0.02 | 0.02 | 62 | 1017.3 |
| 20260508020253 | 53 | 12 | 4.0 | 8.0 | 0.00 | 0.02 | 0.02 | 63 | 1017.4 |
| 20260508020032 | 52 | 32 | 4.0 | 8.0 | 0.00 | 0.02 | 0.02 | 62 | 1017.4 |
| 20260508020025 | 52 | 35 | 3.0 | 8.0 | 0.00 | 0.02 | 0.02 | 62 | 1017.4 |
| 20260508020020 | 52 | 15 | 3.0 | 8.0 | 0.00 | 0.02 | 0.02 | 62 | 1017.4 |
| 20260508020001 | 52 | 76 | 4.0 | 8.0 | 0.00 | 0.02 | 0.02 | 62 | 1017.4 |
| 20260508015619 | 52 | 22 | 3.0 | 8.0 | 0.00 | 0.02 | 0.02 | 62 | 1017.3 |
| 20260508015519 | 52 | 16 | 3.0 | 8.0 | 0.00 | 0.02 | 0.02 | 62 | 1017.3 |
| 20260508015419 | 52 | 49 | 3.0 | 8.0 | 0.00 | 0.02 | 0.02 | 63 | 1017.4 |
| 20260508015319 | 52 | 5 | 3.0 | 8.0 | 0.00 | 0.02 | 0.02 | 63 | 1017.3 |
| 20260508015215 | 52 | 31 | 3.0 | 8.0 | 0.00 | 0.02 | 0.02 | 63 | 1017.3 |
| 20260508015114 | 52 | 33 | 3.0 | 8.0 | 0.00 | 0.02 | 0.02 | 63 | 1017.4 |
| 20260508015053 | 52 | 11 | 3.0 | 8.0 | 0.00 | 0.02 | 0.02 | 63 | 1017.3 |
| 20260508015041 | 52 | 5 | 3.0 | 8.0 | 0.00 | 0.02 | 0.02 | 63 | 1017.3 |
| 20260508014815 | 52 | 15 | 3.0 | 8.0 | 0.00 | 0.02 | 0.02 | 62 | 1017.3 |
| 20260508014714 | 52 | 347 | 3.0 | 8.0 | 0.00 | 0.02 | 0.02 | 63 | 1017.2 |
| 20260508014615 | 52 | 21 | 3.0 | 8.0 | 0.00 | 0.02 | 0.02 | 62 | 1017.2 |
| 20260508014512 | 52 | 19 | 3.0 | 8.0 | 0.00 | 0.02 | 0.02 | 62 | 1017.2 |
| 20260508014413 | 52 | 19 | 3.0 | 8.0 | 0.00 | 0.02 | 0.02 | 63 | 1017.2 |
| 20260508014313 | 52 | 355 | 3.0 | 8.0 | 0.00 | 0.02 | 0.02 | 63 | 1017.2 |
| 20260508014212 | 52 | 0 | 4.0 | 8.0 | 0.00 | 0.02 | 0.02 | 63 | 1017.2 |
| 20260508014107 | 52 | 11 | 4.0 | 9.0 | 0.00 | 0.02 | 0.02 | 62 | 1017.2 |
| 20260508014007 | 52 | 335 | 4.0 | 9.0 | 0.00 | 0.02 | 0.02 | 62 | 1017.2 |
| 20260508013927 | 53 | 40 | 4.0 | 9.0 | 0.00 | 0.02 | 0.02 | 63 | 1017.2 |
| 20260508013923 | 53 | 22 | 4.0 | 9.0 | 0.00 | 0.02 | 0.02 | 62 | 1017.2 |
| 20260508013911 | 52 | 26 | 4.0 | 9.0 | 0.00 | 0.02 | 0.02 | 62 | 1017.2 |
| 20260508013849 | 52 | 19 | 4.0 | 9.0 | 0.00 | 0.02 | 0.02 | 63 | 1017.2 |
| 20260508013506 | 53 | 25 | 4.0 | 9.0 | 0.00 | 0.02 | 0.02 | 62 | 1017.2 |
| 20260508013406 | 53 | 0 | 4.0 | 9.0 | 0.00 | 0.02 | 0.02 | 62 | 1017.3 |
| 20260508013339 | 52 | 304 | 4.0 | 9.0 | 0.00 | 0.02 | 0.02 | 63 | 1017.3 |
| 20260508013328 | 52 | 0 | 4.0 | 9.0 | 0.00 | 0.02 | 0.02 | 62 | 1017.3 |
| 20260508013104 | 52 | 355 | 3.0 | 8.0 | 0.00 | 0.02 | 0.02 | 63 | 1017.2 |
| 20260508013005 | 52 | 27 | 3.0 | 8.0 | 0.00 | 0.02 | 0.02 | 63 | 1017.3 |
| 20260508012903 | 52 | 346 | 3.0 | 7.0 | 0.00 | 0.02 | 0.02 | 63 | 1017.3 |
| 20260508012802 | 52 | 345 | 3.0 | 7.0 | 0.00 | 0.02 | 0.02 | 63 | 1017.2 |
| 20260508012702 | 52 | 5 | 3.0 | 6.0 | 0.00 | 0.02 | 0.02 | 63 | 1017.2 |
| 20260508012602 | 52 | 0 | 3.0 | 6.0 | 0.00 | 0.02 | 0.02 | 63 | 1017.2 |
| 20260508012502 | 52 | 0 | 3.0 | 6.0 | 0.00 | 0.02 | 0.02 | 63 | 1017.1 |
| 20260508012402 | 52 | 337 | 3.0 | 6.0 | 0.00 | 0.02 | 0.02 | 63 | 1017.2 |
| 20260508012306 | 52 | 35 | 3.0 | 6.0 | 0.00 | 0.02 | 0.02 | 63 | 1017.1 |
| 20260508012203 | 52 | 355 | 3.0 | 6.0 | 0.00 | 0.02 | 0.02 | 63 | 1017.0 |
| 20260508012102 | 52 | 30 | 3.0 | 8.0 | 0.00 | 0.02 | 0.02 | 63 | 1016.9 |
| 20260508012003 | 52 | 0 | 4.0 | 8.0 | 0.00 | 0.02 | 0.02 | 63 | 1016.9 |
| 20260508011902 | 52 | 0 | 4.0 | 9.0 | 0.00 | 0.02 | 0.02 | 63 | 1016.9 |
| 20260508011802 | 52 | 68 | 4.0 | 9.0 | 0.00 | 0.02 | 0.02 | 63 | 1016.9 |